Time,TemperatureF,DewpointF,PressureIn,WindDirection,WindDirectionDegrees,WindSpeedMPH,WindSpeedGustMPH,Humidity,HourlyPrecipIn,Conditions,Clouds,dailyrainin,SoftwareType,DateUTC
2013-05-14 00:02:00,61.2,54.6,30.05,NNW,340,0.0,0.0,79,0.00,,---,0.00,VWS V14.01,2013-05-14 04:02:00,
2013-05-14 00:03:00,61.2,54.6,30.05,NNW,340,0.0,0.0,79,0.00,,---,0.00,VWS V14.01,2013-05-14 04:03:00,
2013-05-14 00:04:00,61.2,54.6,30.05,NNW,340,0.0,0.0,79,0.00,,---,0.00,VWS V14.01,2013-05-14 04:04:00,
2013-05-14 00:09:00,60.9,54.7,30.05,NNW,340,0.0,0.0,80,0.00,,---,0.00,VWS V14.01,2013-05-14 04:09:00,
2013-05-14 00:13:00,60.9,54.7,30.05,NNW,340,0.0,0.0,80,0.00,,---,0.00,VWS V14.01,2013-05-14 04:13:00,
2013-05-14 00:14:00,61.0,55.5,30.05,NNW,340,0.0,0.0,82,0.00,,---,0.00,VWS V14.01,2013-05-14 04:14:00,
2013-05-14 00:17:00,61.0,55.5,30.05,NNW,340,0.0,0.0,82,0.00,,---,0.00,VWS V14.01,2013-05-14 04:17:00,
2013-05-14 00:19:00,61.0,55.8,30.04,NNW,340,0.0,0.0,83,0.00,,---,0.00,VWS V14.01,2013-05-14 04:19:00,
2013-05-14 00:21:00,61.0,55.8,30.04,NNW,340,0.0,0.0,83,0.00,,---,0.00,VWS V14.01,2013-05-14 04:21:00,
2013-05-14 00:23:00,61.2,56.3,30.04,NNW,340,0.0,0.0,84,0.00,,---,0.00,VWS V14.01,2013-05-14 04:23:00,
2013-05-14 00:25:00,61.2,56.3,30.04,NNW,340,0.0,0.0,84,0.00,,---,0.00,VWS V14.01,2013-05-14 04:25:00,
2013-05-14 00:28:00,61.3,56.4,30.04,NNW,340,0.0,0.0,84,0.00,,---,0.00,VWS V14.01,2013-05-14 04:28:00,
2013-05-14 00:30:00,61.3,56.4,30.04,NNW,340,0.0,0.0,84,0.00,,---,0.00,VWS V14.01,2013-05-14 04:30:00,
2013-05-14 00:35:00,61.3,56.4,30.04,NNW,340,0.0,0.0,84,0.00,,---,0.00,VWS V14.01,2013-05-14 04:35:00,
2013-05-14 00:36:00,61.0,55.8,30.04,NNW,340,0.0,0.0,83,0.00,,---,0.00,VWS V14.01,2013-05-14 04:36:00,
2013-05-14 00:40:00,60.9,55.7,30.04,NNW,340,0.0,0.0,83,0.00,,---,0.00,VWS V14.01,2013-05-14 04:40:00,
2013-05-14 00:44:00,60.5,55.7,30.04,NNW,340,0.0,0.0,84,0.00,,---,0.00,VWS V14.01,2013-05-14 04:44:00,
2013-05-14 00:45:00,60.5,55.7,30.04,NNW,340,0.0,0.0,84,0.00,,---,0.00,VWS V14.01,2013-05-14 04:45:00,
2013-05-14 00:50:00,60.4,55.5,30.04,NNW,340,0.0,0.0,84,0.00,,---,0.00,VWS V14.01,2013-05-14 04:50:00,
2013-05-14 00:52:00,60.4,55.5,30.04,NNW,340,0.0,0.0,84,0.00,,---,0.00,VWS V14.01,2013-05-14 04:52:00,
2013-05-14 00:56:00,60.1,55.3,30.04,NNW,340,0.0,0.0,84,0.00,,---,0.00,VWS V14.01,2013-05-14 04:56:00,
2013-05-14 00:57:00,60.1,55.3,30.04,NNW,340,0.0,0.0,84,0.00,,---,0.00,VWS V14.01,2013-05-14 04:57:00,
2013-05-14 01:01:00,59.9,55.1,30.04,NNW,340,0.0,0.0,84,0.00,,---,0.00,VWS V14.01,2013-05-14 05:01:00,
2013-05-14 01:04:00,59.9,55.1,30.04,NNW,340,0.0,0.0,84,0.00,,---,0.00,VWS V14.01,2013-05-14 05:04:00,
2013-05-14 01:05:00,59.8,55.0,30.05,NNW,340,0.0,0.0,84,0.00,,---,0.00,VWS V14.01,2013-05-14 05:05:00,
2013-05-14 01:08:00,59.6,54.8,30.05,NNW,340,0.0,0.0,84,0.00,,---,0.00,VWS V14.01,2013-05-14 05:08:00,
2013-05-14 01:09:00,59.6,54.8,30.05,NNW,340,0.0,0.0,84,0.00,,---,0.00,VWS V14.01,2013-05-14 05:09:00,
2013-05-14 01:14:00,59.5,55.0,30.05,NNW,340,0.0,0.0,85,0.00,,---,0.00,VWS V14.01,2013-05-14 05:14:00,
2013-05-14 01:21:00,59.3,54.8,30.05,NNW,340,0.0,0.0,85,0.00,,---,0.00,VWS V14.01,2013-05-14 05:21:00,
2013-05-14 01:22:00,59.3,54.8,30.05,NNW,340,0.0,0.0,85,0.00,,---,0.00,VWS V14.01,2013-05-14 05:22:00,
2013-05-14 01:25:00,59.3,54.8,30.05,NNW,340,0.0,0.0,85,0.00,,---,0.00,VWS V14.01,2013-05-14 05:25:00,
2013-05-14 01:27:00,59.2,54.7,30.05,NNW,340,0.0,0.0,85,0.00,,---,0.00,VWS V14.01,2013-05-14 05:27:00,
2013-05-14 01:30:00,59.2,54.7,30.05,NNW,340,0.0,0.0,85,0.00,,---,0.00,VWS V14.01,2013-05-14 05:30:00,
2013-05-14 01:31:00,59.2,54.7,30.05,NNW,340,0.0,0.0,85,0.00,,---,0.00,VWS V14.01,2013-05-14 05:31:00,
2013-05-14 01:36:00,59.0,54.5,30.05,NNW,340,0.0,0.0,85,0.00,,---,0.00,VWS V14.01,2013-05-14 05:36:00,
2013-05-14 01:37:00,59.0,54.5,30.05,NNW,340,0.0,0.0,85,0.00,,---,0.00,VWS V14.01,2013-05-14 05:37:00,
2013-05-14 01:41:00,58.9,54.4,30.05,NNW,340,0.0,0.0,85,0.00,,---,0.00,VWS V14.01,2013-05-14 05:41:00,
2013-05-14 01:42:00,58.9,54.4,30.05,NNW,340,0.0,0.0,85,0.00,,---,0.00,VWS V14.01,2013-05-14 05:42:00,
2013-05-14 01:50:00,58.9,54.4,30.05,NNW,340,0.0,0.0,85,0.00,,---,0.00,VWS V14.01,2013-05-14 05:50:00,
2013-05-14 01:53:00,58.7,54.2,30.04,NNW,340,0.0,0.0,85,0.00,,---,0.00,VWS V14.01,2013-05-14 05:53:00,
2013-05-14 01:56:00,58.6,54.1,30.04,NNW,340,0.0,0.0,85,0.00,,---,0.00,VWS V14.01,2013-05-14 05:56:00,
2013-05-14 01:58:00,58.6,54.1,30.04,NNW,340,0.0,0.0,85,0.00,,---,0.00,VWS V14.01,2013-05-14 05:58:00,
2013-05-14 02:01:00,58.4,53.9,30.04,NNW,340,0.0,0.0,85,0.00,,---,0.00,VWS V14.01,2013-05-14 06:01:00,
2013-05-14 02:03:00,58.3,53.8,30.04,NNW,340,0.0,0.0,85,0.00,,---,0.00,VWS V14.01,2013-05-14 06:03:00,
2013-05-14 02:05:00,58.3,53.8,30.04,NNW,340,0.0,0.0,85,0.00,,---,0.00,VWS V14.01,2013-05-14 06:05:00,
2013-05-14 02:07:00,58.3,53.5,30.04,NNW,340,0.0,0.0,84,0.00,,---,0.00,VWS V14.01,2013-05-14 06:07:00,
2013-05-14 02:10:00,58.4,53.3,30.04,NNW,340,0.0,0.0,83,0.00,,---,0.00,VWS V14.01,2013-05-14 06:10:00,
2013-05-14 02:12:00,58.4,53.3,30.04,NNW,340,0.0,0.0,83,0.00,,---,0.00,VWS V14.01,2013-05-14 06:12:00,
2013-05-14 02:14:00,58.4,53.3,30.04,NNW,340,0.0,0.0,83,0.00,,---,0.00,VWS V14.01,2013-05-14 06:14:00,
2013-05-14 02:16:00,58.4,53.3,30.04,NNW,340,0.0,0.0,83,0.00,,---,0.00,VWS V14.01,2013-05-14 06:16:00,
2013-05-14 02:19:00,58.3,53.2,30.05,NNW,340,0.0,0.0,83,0.00,,---,0.00,VWS V14.01,2013-05-14 06:19:00,
2013-05-14 02:20:00,58.3,53.2,30.05,NNW,340,0.0,0.0,83,0.00,,---,0.00,VWS V14.01,2013-05-14 06:20:00,
2013-05-14 02:25:00,58.3,53.2,30.05,NNW,340,0.0,0.0,83,0.00,,---,0.00,VWS V14.01,2013-05-14 06:25:00,
2013-05-14 02:28:00,58.3,53.2,30.05,NNW,340,0.0,0.0,83,0.00,,---,0.00,VWS V14.01,2013-05-14 06:28:00,
2013-05-14 02:31:00,58.3,52.8,30.05,NNW,340,0.0,0.0,82,0.00,,---,0.00,VWS V14.01,2013-05-14 06:31:00,
2013-05-14 02:33:00,58.3,52.5,30.05,NNW,340,0.0,0.0,81,0.00,,---,0.00,VWS V14.01,2013-05-14 06:33:00,
2013-05-14 02:34:00,58.6,52.8,30.05,NNW,340,0.0,0.0,81,0.00,,---,0.00,VWS V14.01,2013-05-14 06:34:00,
2013-05-14 02:37:00,58.6,52.8,30.05,NNW,340,0.0,0.0,81,0.00,,---,0.00,VWS V14.01,2013-05-14 06:37:00,
2013-05-14 02:40:00,58.9,52.8,30.05,NNW,340,0.0,0.0,80,0.00,,---,0.00,VWS V14.01,2013-05-14 06:40:00,
2013-05-14 02:41:00,58.9,52.4,30.05,NNW,340,0.0,0.0,79,0.00,,---,0.00,VWS V14.01,2013-05-14 06:41:00,
2013-05-14 02:43:00,59.0,52.5,30.05,NNW,340,0.0,0.0,79,0.00,,---,0.00,VWS V14.01,2013-05-14 06:43:00,
2013-05-14 02:45:00,59.0,52.5,30.05,NNW,340,0.0,0.0,79,0.00,,---,0.00,VWS V14.01,2013-05-14 06:45:00,
2013-05-14 02:46:00,59.2,52.0,30.05,NNW,340,0.0,0.0,77,0.00,,---,0.00,VWS V14.01,2013-05-14 06:46:00,
2013-05-14 02:49:00,59.3,51.8,30.05,North,356,0.0,0.0,76,0.00,,---,0.00,VWS V14.01,2013-05-14 06:49:00,
2013-05-14 02:52:00,59.5,51.6,30.05,North,356,0.0,0.0,75,0.00,,---,0.00,VWS V14.01,2013-05-14 06:52:00,
2013-05-14 02:54:00,59.6,51.3,30.05,North,356,0.0,0.0,74,0.00,,---,0.00,VWS V14.01,2013-05-14 06:54:00,
2013-05-14 02:55:00,59.6,51.3,30.05,North,356,0.0,0.0,74,0.00,,---,0.00,VWS V14.01,2013-05-14 06:55:00,
2013-05-14 02:57:00,59.8,51.5,30.05,North,356,0.0,0.0,74,0.00,,---,0.00,VWS V14.01,2013-05-14 06:57:00,
2013-05-14 03:00:00,59.8,51.5,30.05,North,356,0.0,0.0,74,0.00,,---,0.00,VWS V14.01,2013-05-14 07:00:00,
2013-05-14 03:04:00,59.8,51.5,30.05,North,356,0.0,0.0,74,0.00,,---,0.00,VWS V14.01,2013-05-14 07:04:00,
2013-05-14 03:05:00,59.8,51.5,30.05,North,356,0.0,0.0,74,0.00,,---,0.00,VWS V14.01,2013-05-14 07:05:00,
2013-05-14 03:07:00,59.8,51.5,30.05,North,356,0.0,0.0,74,0.00,,---,0.00,VWS V14.01,2013-05-14 07:07:00,
2013-05-14 03:13:00,59.5,51.6,30.05,North,356,0.0,0.0,75,0.00,,---,0.00,VWS V14.01,2013-05-14 07:13:00,
2013-05-14 03:14:00,59.3,51.8,30.05,North,356,0.0,0.0,76,0.00,,---,0.00,VWS V14.01,2013-05-14 07:14:00,
2013-05-14 03:15:00,59.3,51.8,30.05,North,356,0.0,0.0,76,0.00,,---,0.00,VWS V14.01,2013-05-14 07:15:00,
2013-05-14 03:21:00,59.0,51.5,30.05,North,356,0.0,0.0,76,0.00,,---,0.00,VWS V14.01,2013-05-14 07:21:00,
2013-05-14 03:22:00,59.0,51.5,30.05,North,356,0.0,0.0,76,0.00,,---,0.00,VWS V14.01,2013-05-14 07:22:00,
2013-05-14 03:23:00,59.0,51.5,30.05,North,356,0.0,0.0,76,0.00,,---,0.00,VWS V14.01,2013-05-14 07:23:00,
2013-05-14 03:24:00,58.9,51.4,30.05,North,356,0.0,0.0,76,0.00,,---,0.00,VWS V14.01,2013-05-14 07:24:00,
2013-05-14 03:29:00,58.7,51.5,30.05,North,356,0.0,0.0,77,0.00,,---,0.00,VWS V14.01,2013-05-14 07:29:00,
2013-05-14 03:30:00,58.7,51.5,30.05,North,356,0.0,0.0,77,0.00,,---,0.00,VWS V14.01,2013-05-14 07:30:00,
2013-05-14 03:32:00,58.7,51.5,30.05,North,356,0.0,0.0,77,0.00,,---,0.00,VWS V14.01,2013-05-14 07:32:00,
2013-05-14 03:34:00,58.6,51.4,30.05,North,356,0.0,0.0,77,0.00,,---,0.00,VWS V14.01,2013-05-14 07:34:00,
2013-05-14 03:37:00,58.4,51.2,30.05,North,356,0.0,0.0,77,0.00,,---,0.00,VWS V14.01,2013-05-14 07:37:00,
2013-05-14 03:39:00,58.3,51.5,30.05,North,356,0.0,0.0,78,0.00,,---,0.00,VWS V14.01,2013-05-14 07:39:00,
2013-05-14 03:41:00,58.3,51.5,30.05,North,356,0.0,0.0,78,0.00,,---,0.00,VWS V14.01,2013-05-14 07:41:00,
2013-05-14 03:45:00,58.3,51.5,30.05,North,356,0.0,0.0,78,0.00,,---,0.00,VWS V14.01,2013-05-14 07:45:00,
2013-05-14 03:46:00,58.1,51.3,30.05,North,356,0.0,0.0,78,0.00,,---,0.00,VWS V14.01,2013-05-14 07:46:00,
2013-05-14 03:50:00,58.1,51.3,30.05,North,356,0.0,0.0,78,0.00,,---,0.00,VWS V14.01,2013-05-14 07:50:00,
2013-05-14 03:52:00,58.1,50.9,30.05,North,356,0.0,0.0,77,0.00,,---,0.00,VWS V14.01,2013-05-14 07:52:00,
2013-05-14 03:57:00,58.1,50.9,30.05,North,356,0.0,0.0,77,0.00,,---,0.00,VWS V14.01,2013-05-14 07:57:00,
2013-05-14 03:58:00,58.1,51.3,30.05,North,356,0.0,0.0,78,0.00,,---,0.00,VWS V14.01,2013-05-14 07:58:00,
2013-05-14 03:59:00,58.1,51.3,30.05,North,356,0.0,0.0,78,0.00,,---,0.00,VWS V14.01,2013-05-14 07:59:00,
2013-05-14 04:01:00,58.1,51.3,30.05,North,356,0.0,0.0,78,0.00,,---,0.00,VWS V14.01,2013-05-14 08:01:00,
2013-05-14 04:06:00,57.8,51.0,30.05,North,356,0.0,0.0,78,0.00,,---,0.00,VWS V14.01,2013-05-14 08:06:00,
2013-05-14 04:07:00,57.8,51.0,30.05,North,356,0.0,0.0,78,0.00,,---,0.00,VWS V14.01,2013-05-14 08:07:00,
2013-05-14 04:13:00,57.8,51.3,30.05,North,356,0.0,0.0,79,0.00,,---,0.00,VWS V14.01,2013-05-14 08:13:00,
2013-05-14 04:14:00,57.6,51.1,30.05,North,356,0.0,0.0,79,0.00,,---,0.00,VWS V14.01,2013-05-14 08:14:00,
2013-05-14 04:16:00,57.6,51.1,30.05,North,356,0.0,0.0,79,0.00,,---,0.00,VWS V14.01,2013-05-14 08:16:00,
2013-05-14 04:19:00,57.5,51.0,30.05,North,356,0.0,0.0,79,0.00,,---,0.00,VWS V14.01,2013-05-14 08:19:00,
2013-05-14 04:23:00,57.5,51.0,30.05,North,356,0.0,0.0,79,0.00,,---,0.00,VWS V14.01,2013-05-14 08:23:00,
2013-05-14 04:24:00,57.5,51.0,30.05,North,356,0.0,0.0,79,0.00,,---,0.00,VWS V14.01,2013-05-14 08:24:00,
2013-05-14 04:25:00,57.5,51.0,30.05,North,356,0.0,0.0,79,0.00,,---,0.00,VWS V14.01,2013-05-14 08:25:00,
2013-05-14 04:26:00,57.5,51.0,30.05,North,356,0.0,0.0,79,0.00,,---,0.00,VWS V14.01,2013-05-14 08:26:00,
2013-05-14 04:30:00,57.5,51.0,30.05,North,356,0.0,0.0,79,0.00,,---,0.00,VWS V14.01,2013-05-14 08:30:00,
2013-05-14 04:33:00,57.5,51.4,30.05,North,356,0.0,0.0,80,0.00,,---,0.00,VWS V14.01,2013-05-14 08:33:00,
2013-05-14 04:34:00,57.5,51.4,30.06,North,356,0.0,0.0,80,0.00,,---,0.00,VWS V14.01,2013-05-14 08:34:00,
2013-05-14 04:38:00,57.5,51.4,30.06,North,356,0.0,0.0,80,0.00,,---,0.00,VWS V14.01,2013-05-14 08:38:00,
2013-05-14 04:41:00,57.3,51.2,30.06,North,356,0.0,0.0,80,0.00,,---,0.00,VWS V14.01,2013-05-14 08:41:00,
2013-05-14 04:44:00,57.3,51.2,30.06,North,356,0.0,0.0,80,0.00,,---,0.00,VWS V14.01,2013-05-14 08:44:00,
2013-05-14 04:45:00,57.5,51.0,30.06,North,356,0.0,0.0,79,0.00,,---,0.00,VWS V14.01,2013-05-14 08:45:00,
2013-05-14 04:47:00,57.5,51.0,30.06,North,356,0.0,0.0,79,0.00,,---,0.00,VWS V14.01,2013-05-14 08:47:00,
2013-05-14 04:48:00,57.5,51.0,30.06,North,356,0.0,0.0,79,0.00,,---,0.00,VWS V14.01,2013-05-14 08:48:00,
2013-05-14 04:49:00,57.5,51.0,30.05,North,356,0.0,1.0,79,0.00,,---,0.00,VWS V14.01,2013-05-14 08:49:00,
2013-05-14 04:50:00,57.6,50.8,30.05,North,356,0.0,1.0,78,0.00,,---,0.00,VWS V14.01,2013-05-14 08:50:00,
2013-05-14 04:57:00,57.6,50.8,30.05,North,356,1.0,1.0,78,0.00,,---,0.00,VWS V14.01,2013-05-14 08:57:00,
2013-05-14 04:58:00,58.1,50.6,30.05,North,356,0.0,1.0,76,0.00,,---,0.00,VWS V14.01,2013-05-14 08:58:00,
2013-05-14 05:01:00,58.3,50.8,30.05,North,356,0.0,1.0,76,0.00,,---,0.00,VWS V14.01,2013-05-14 09:01:00,
2013-05-14 05:02:00,58.3,50.8,30.05,North,356,0.0,1.0,76,0.00,,---,0.00,VWS V14.01,2013-05-14 09:02:00,
2013-05-14 05:04:00,58.3,50.8,30.05,North,356,0.0,1.0,76,0.00,,---,0.00,VWS V14.01,2013-05-14 09:04:00,
2013-05-14 05:05:00,58.4,50.5,30.05,North,356,0.0,1.0,75,0.00,,---,0.00,VWS V14.01,2013-05-14 09:05:00,
2013-05-14 05:08:00,58.4,50.5,30.05,North,356,0.0,0.0,75,0.00,,---,0.00,VWS V14.01,2013-05-14 09:08:00,
2013-05-14 05:09:00,58.4,50.5,30.05,North,356,0.0,0.0,75,0.00,,---,0.00,VWS V14.01,2013-05-14 09:09:00,
2013-05-14 05:10:00,58.4,50.5,30.05,North,356,0.0,0.0,75,0.00,,---,0.00,VWS V14.01,2013-05-14 09:10:00,
2013-05-14 05:13:00,58.4,50.5,30.05,North,356,0.0,0.0,75,0.00,,---,0.00,VWS V14.01,2013-05-14 09:13:00,
2013-05-14 05:16:00,58.4,50.5,30.05,North,356,0.0,0.0,75,0.00,,---,0.00,VWS V14.01,2013-05-14 09:16:00,
2013-05-14 05:18:00,58.3,50.4,30.05,North,356,0.0,0.0,75,0.00,,---,0.00,VWS V14.01,2013-05-14 09:18:00,
2013-05-14 05:19:00,58.1,50.2,30.06,North,356,0.0,0.0,75,0.00,,---,0.00,VWS V14.01,2013-05-14 09:19:00,
2013-05-14 05:20:00,58.1,50.6,30.06,North,356,0.0,0.0,76,0.00,,---,0.00,VWS V14.01,2013-05-14 09:20:00,
2013-05-14 05:22:00,58.1,50.6,30.06,North,356,0.0,0.0,76,0.00,,---,0.00,VWS V14.01,2013-05-14 09:22:00,
2013-05-14 05:24:00,58.0,50.5,30.06,North,356,0.0,0.0,76,0.00,,---,0.00,VWS V14.01,2013-05-14 09:24:00,
2013-05-14 05:25:00,57.8,50.3,30.06,North,356,0.0,0.0,76,0.00,,---,0.00,VWS V14.01,2013-05-14 09:25:00,
2013-05-14 05:26:00,57.8,50.3,30.06,North,356,0.0,0.0,76,0.00,,---,0.00,VWS V14.01,2013-05-14 09:26:00,
2013-05-14 05:30:00,57.5,50.4,30.06,North,356,0.0,0.0,77,0.00,,---,0.00,VWS V14.01,2013-05-14 09:30:00,
2013-05-14 05:33:00,57.2,50.1,30.06,North,356,0.0,0.0,77,0.00,,---,0.00,VWS V14.01,2013-05-14 09:33:00,
2013-05-14 05:34:00,57.2,50.1,30.06,North,356,0.0,0.0,77,0.00,,---,0.00,VWS V14.01,2013-05-14 09:34:00,
2013-05-14 05:37:00,57.0,50.2,30.06,North,356,0.0,0.0,78,0.00,,---,0.00,VWS V14.01,2013-05-14 09:37:00,
2013-05-14 05:38:00,56.7,49.9,30.06,North,356,0.0,0.0,78,0.00,,---,0.00,VWS V14.01,2013-05-14 09:38:00,
2013-05-14 05:39:00,56.7,49.9,30.06,North,356,0.0,0.0,78,0.00,,---,0.00,VWS V14.01,2013-05-14 09:39:00,
2013-05-14 05:43:00,56.5,50.1,30.06,North,356,0.0,0.0,79,0.00,,---,0.00,VWS V14.01,2013-05-14 09:43:00,
2013-05-14 05:48:00,56.2,49.8,30.06,North,356,0.0,0.0,79,0.00,,---,0.00,VWS V14.01,2013-05-14 09:48:00,
2013-05-14 05:49:00,56.0,49.9,30.06,North,356,0.0,0.0,80,0.00,,---,0.00,VWS V14.01,2013-05-14 09:49:00,
2013-05-14 05:50:00,55.9,49.8,30.06,North,356,0.0,0.0,80,0.00,,---,0.00,VWS V14.01,2013-05-14 09:50:00,
2013-05-14 05:55:00,55.7,50.0,30.06,North,356,0.0,0.0,81,0.00,,---,0.00,VWS V14.01,2013-05-14 09:55:00,
2013-05-14 05:57:00,55.4,49.7,30.06,North,356,0.0,0.0,81,0.00,,---,0.00,VWS V14.01,2013-05-14 09:57:00,
2013-05-14 05:58:00,55.4,49.7,30.06,North,356,0.0,0.0,81,0.00,,---,0.00,VWS V14.01,2013-05-14 09:58:00,
2013-05-14 06:01:00,55.3,49.9,30.06,North,356,0.0,0.0,82,0.00,,---,0.00,VWS V14.01,2013-05-14 10:01:00,
2013-05-14 06:03:00,55.3,49.9,30.06,North,356,0.0,0.0,82,0.00,,---,0.00,VWS V14.01,2013-05-14 10:03:00,
2013-05-14 06:07:00,55.1,50.0,30.06,North,356,0.0,0.0,83,0.00,,---,0.00,VWS V14.01,2013-05-14 10:07:00,
2013-05-14 06:09:00,54.8,49.7,30.06,North,356,0.0,0.0,83,0.00,,---,0.00,VWS V14.01,2013-05-14 10:09:00,
2013-05-14 06:13:00,54.7,50.0,30.06,North,356,0.0,0.0,84,0.00,,---,0.00,VWS V14.01,2013-05-14 10:13:00,
2013-05-14 06:14:00,54.7,50.0,30.06,North,356,0.0,0.0,84,0.00,,---,0.00,VWS V14.01,2013-05-14 10:14:00,
2013-05-14 06:15:00,54.5,49.8,30.06,North,356,0.0,0.0,84,0.00,,---,0.00,VWS V14.01,2013-05-14 10:15:00,
2013-05-14 06:19:00,54.5,49.8,30.06,North,356,0.0,0.0,84,0.00,,---,0.00,VWS V14.01,2013-05-14 10:19:00,
2013-05-14 06:22:00,54.4,50.0,30.07,North,356,0.0,0.0,85,0.00,,---,0.00,VWS V14.01,2013-05-14 10:22:00,
2013-05-14 06:23:00,54.2,49.8,30.07,North,356,0.0,0.0,85,0.00,,---,0.00,VWS V14.01,2013-05-14 10:23:00,
2013-05-14 06:26:00,54.2,50.1,30.07,North,356,0.0,0.0,86,0.00,,---,0.00,VWS V14.01,2013-05-14 10:26:00,
2013-05-14 06:28:00,54.2,50.1,30.07,North,356,0.0,0.0,86,0.00,,---,0.00,VWS V14.01,2013-05-14 10:28:00,
2013-05-14 06:29:00,54.1,50.0,30.07,North,356,0.0,0.0,86,0.00,,---,0.00,VWS V14.01,2013-05-14 10:29:00,
2013-05-14 06:33:00,53.9,49.8,30.08,North,356,0.0,0.0,86,0.00,,---,0.00,VWS V14.01,2013-05-14 10:33:00,
2013-05-14 06:34:00,53.9,49.8,30.08,North,356,0.0,0.0,86,0.00,,---,0.00,VWS V14.01,2013-05-14 10:34:00,
2013-05-14 06:35:00,53.8,49.7,30.08,North,356,0.0,0.0,86,0.00,,---,0.00,VWS V14.01,2013-05-14 10:35:00,
2013-05-14 06:39:00,53.6,49.5,30.08,North,356,0.0,0.0,86,0.00,,---,0.00,VWS V14.01,2013-05-14 10:39:00,
2013-05-14 06:45:00,53.5,49.7,30.08,North,356,0.0,0.0,87,0.00,,---,0.00,VWS V14.01,2013-05-14 10:45:00,
2013-05-14 06:46:00,53.5,50.0,30.08,North,356,0.0,0.0,88,0.00,,---,0.00,VWS V14.01,2013-05-14 10:46:00,
2013-05-14 06:53:00,53.3,49.8,30.08,North,356,0.0,0.0,88,0.00,,---,0.00,VWS V14.01,2013-05-14 10:53:00,
2013-05-14 06:55:00,53.3,49.8,30.08,North,356,0.0,0.0,88,0.00,,---,0.00,VWS V14.01,2013-05-14 10:55:00,
2013-05-14 06:57:00,53.3,50.2,30.08,North,356,0.0,0.0,89,0.00,,---,0.00,VWS V14.01,2013-05-14 10:57:00,
2013-05-14 06:58:00,53.3,50.2,30.08,North,356,0.0,0.0,89,0.00,,---,0.00,VWS V14.01,2013-05-14 10:58:00,
2013-05-14 07:02:00,53.3,50.2,30.08,North,356,0.0,0.0,89,0.00,,---,0.00,VWS V14.01,2013-05-14 11:02:00,
2013-05-14 07:03:00,53.2,50.0,30.08,North,356,0.0,0.0,89,0.00,,---,0.00,VWS V14.01,2013-05-14 11:03:00,
2013-05-14 07:04:00,53.2,50.0,30.09,NNW,347,0.0,0.0,89,0.00,,---,0.00,VWS V14.01,2013-05-14 11:04:00,
2013-05-14 07:07:00,53.2,50.0,30.09,NNW,347,0.0,0.0,89,0.00,,---,0.00,VWS V14.01,2013-05-14 11:07:00,
2013-05-14 07:08:00,53.2,50.0,30.09,NNW,347,0.0,0.0,89,0.00,,---,0.00,VWS V14.01,2013-05-14 11:08:00,
2013-05-14 07:11:00,53.2,50.3,30.09,NNW,347,0.0,0.0,90,0.00,,---,0.00,VWS V14.01,2013-05-14 11:11:00,
2013-05-14 07:15:00,53.2,50.3,30.09,NNW,347,0.0,0.0,90,0.00,,---,0.00,VWS V14.01,2013-05-14 11:15:00,
2013-05-14 07:19:00,53.5,50.6,30.09,NNW,347,0.0,0.0,90,0.00,,---,0.00,VWS V14.01,2013-05-14 11:19:00,
2013-05-14 07:22:00,54.1,51.5,30.09,NNW,347,0.0,0.0,91,0.00,,---,0.00,VWS V14.01,2013-05-14 11:22:00,
2013-05-14 07:26:00,55.3,52.7,30.09,NNW,347,0.0,0.0,91,0.00,,---,0.00,VWS V14.01,2013-05-14 11:26:00,
2013-05-14 07:27:00,55.6,53.0,30.09,NNW,347,0.0,0.0,91,0.00,,---,0.00,VWS V14.01,2013-05-14 11:27:00,
2013-05-14 07:30:00,56.0,53.1,30.09,NNW,347,0.0,0.0,90,0.00,,---,0.00,VWS V14.01,2013-05-14 11:30:00,
2013-05-14 07:32:00,56.5,53.3,30.09,NNW,347,0.0,0.0,89,0.00,,---,0.00,VWS V14.01,2013-05-14 11:32:00,
2013-05-14 07:35:00,56.9,53.7,30.09,NNW,347,0.0,0.0,89,0.00,,---,0.00,VWS V14.01,2013-05-14 11:35:00,
2013-05-14 07:39:00,57.8,53.7,30.10,NNW,347,0.0,0.0,86,0.00,,---,0.00,VWS V14.01,2013-05-14 11:39:00,
2013-05-14 07:41:00,58.4,53.3,30.10,NNW,347,0.0,0.0,83,0.00,,---,0.00,VWS V14.01,2013-05-14 11:41:00,
2013-05-14 07:42:00,59.0,53.2,30.10,NNW,347,0.0,0.0,81,0.00,,---,0.00,VWS V14.01,2013-05-14 11:42:00,
2013-05-14 07:45:00,59.6,52.7,30.10,NNW,347,0.0,0.0,78,0.00,,---,0.00,VWS V14.01,2013-05-14 11:45:00,
2013-05-14 07:47:00,59.9,53.0,30.10,NNW,347,0.0,0.0,78,0.00,,---,0.00,VWS V14.01,2013-05-14 11:47:00,
2013-05-14 07:48:00,60.1,52.9,30.10,NNW,347,0.0,0.0,77,0.00,,---,0.00,VWS V14.01,2013-05-14 11:48:00,
2013-05-14 07:49:00,60.4,53.2,30.10,NNW,347,0.0,0.0,77,0.00,,---,0.00,VWS V14.01,2013-05-14 11:49:00,
2013-05-14 07:55:00,60.9,52.9,30.10,NNW,347,0.0,0.0,75,0.00,,---,0.00,VWS V14.01,2013-05-14 11:55:00,
2013-05-14 07:56:00,61.6,53.2,30.10,NNW,348,4.0,5.0,74,0.00,,---,0.00,VWS V14.01,2013-05-14 11:56:00,
2013-05-14 08:01:00,62.1,53.3,30.10,NNW,348,1.0,5.0,73,0.00,,---,0.00,VWS V14.01,2013-05-14 12:01:00,
2013-05-14 08:03:00,62.6,53.8,30.10,NNW,348,0.0,5.0,73,0.00,,---,0.00,VWS V14.01,2013-05-14 12:03:00,
2013-05-14 08:05:00,62.7,53.5,30.10,North,349,0.0,5.0,72,0.00,,---,0.00,VWS V14.01,2013-05-14 12:05:00,
2013-05-14 08:09:00,63.1,53.6,30.10,North,349,0.0,5.0,71,0.00,,---,0.00,VWS V14.01,2013-05-14 12:09:00,
2013-05-14 08:11:00,63.4,53.8,30.10,NNE,29,0.0,5.0,71,0.00,,---,0.00,VWS V14.01,2013-05-14 12:11:00,
2013-05-14 08:12:00,63.5,53.5,30.10,NNE,29,4.0,5.0,70,0.00,,---,0.00,VWS V14.01,2013-05-14 12:12:00,
2013-05-14 08:14:00,63.9,53.9,30.10,North,3,2.0,6.0,70,0.00,,---,0.00,VWS V14.01,2013-05-14 12:14:00,
2013-05-14 08:17:00,64.0,53.6,30.10,North,0,1.0,6.0,69,0.00,,---,0.00,VWS V14.01,2013-05-14 12:17:00,
2013-05-14 08:18:00,64.0,53.6,30.10,North,0,0.0,6.0,69,0.00,,---,0.00,VWS V14.01,2013-05-14 12:18:00,
2013-05-14 08:19:00,64.2,53.8,30.11,North,1,0.0,6.0,69,0.00,,---,0.00,VWS V14.01,2013-05-14 12:19:00,
2013-05-14 08:21:00,64.3,53.9,30.11,North,1,0.0,6.0,69,0.00,,---,0.00,VWS V14.01,2013-05-14 12:21:00,
2013-05-14 08:25:00,64.8,54.4,30.11,North,1,0.0,6.0,69,0.00,,---,0.00,VWS V14.01,2013-05-14 12:25:00,
2013-05-14 08:27:00,64.8,54.4,30.11,North,1,0.0,6.0,69,0.00,,---,0.00,VWS V14.01,2013-05-14 12:27:00,
2013-05-14 08:29:00,65.2,54.4,30.11,North,1,0.0,6.0,68,0.00,,---,0.00,VWS V14.01,2013-05-14 12:29:00,
2013-05-14 08:30:00,65.5,54.7,30.11,North,1,6.0,6.0,68,0.00,,---,0.00,VWS V14.01,2013-05-14 12:30:00,
2013-05-14 08:34:00,66.0,55.2,30.11,North,0,0.0,6.0,68,0.00,,---,0.00,VWS V14.01,2013-05-14 12:34:00,
2013-05-14 08:36:00,66.3,55.0,30.11,North,0,5.0,6.0,67,0.00,,---,0.00,VWS V14.01,2013-05-14 12:36:00,
2013-05-14 08:37:00,66.4,54.7,30.11,North,0,0.0,6.0,66,0.00,,---,0.00,VWS V14.01,2013-05-14 12:37:00,
2013-05-14 08:40:00,66.8,54.7,30.11,North,0,6.0,6.0,65,0.00,,---,0.00,VWS V14.01,2013-05-14 12:40:00,
2013-05-14 08:43:00,66.8,54.7,30.11,North,0,0.0,6.0,65,0.00,,---,0.00,VWS V14.01,2013-05-14 12:43:00,
2013-05-14 08:46:00,66.9,54.3,30.11,North,0,4.0,6.0,64,0.00,,---,0.00,VWS V14.01,2013-05-14 12:46:00,
2013-05-14 08:49:00,67.1,54.5,30.11,North,0,0.0,6.0,64,0.00,,---,0.00,VWS V14.01,2013-05-14 12:49:00,
2013-05-14 08:50:00,67.6,54.6,30.11,North,350,0.0,6.0,63,0.00,,---,0.00,VWS V14.01,2013-05-14 12:50:00,
2013-05-14 08:54:00,67.9,53.5,30.11,North,0,4.0,6.0,60,0.00,,---,0.00,VWS V14.01,2013-05-14 12:54:00,
2013-05-14 08:56:00,67.9,53.5,30.11,North,0,4.0,6.0,60,0.00,,---,0.00,VWS V14.01,2013-05-14 12:56:00,
2013-05-14 08:57:00,68.1,53.7,30.11,North,356,7.0,7.0,60,0.00,,---,0.00,VWS V14.01,2013-05-14 12:57:00,
2013-05-14 08:58:00,68.1,54.2,30.11,NNW,345,2.0,7.0,61,0.00,,---,0.00,VWS V14.01,2013-05-14 12:58:00,
2013-05-14 09:01:00,68.1,54.2,30.11,NNW,345,2.0,7.0,61,0.00,,---,0.00,VWS V14.01,2013-05-14 13:01:00,
2013-05-14 09:05:00,68.9,54.9,30.11,North,1,5.0,7.0,61,0.00,,---,0.00,VWS V14.01,2013-05-14 13:05:00,
2013-05-14 09:07:00,69.1,54.2,30.11,NNE,25,5.0,7.0,59,0.00,,---,0.00,VWS V14.01,2013-05-14 13:07:00,
2013-05-14 09:08:00,69.1,54.2,30.11,NNE,25,2.0,7.0,59,0.00,,---,0.00,VWS V14.01,2013-05-14 13:08:00,
2013-05-14 09:11:00,69.3,54.4,30.11,NE,51,2.0,7.0,59,0.00,,---,0.00,VWS V14.01,2013-05-14 13:11:00,
2013-05-14 09:12:00,69.3,53.4,30.11,NE,38,4.0,7.0,57,0.00,,---,0.00,VWS V14.01,2013-05-14 13:12:00,
2013-05-14 09:13:00,69.3,53.0,30.11,ENE,62,8.0,8.0,56,0.00,,---,0.00,VWS V14.01,2013-05-14 13:13:00,
2013-05-14 09:14:00,69.4,53.5,30.11,NE,51,5.0,8.0,57,0.00,,---,0.00,VWS V14.01,2013-05-14 13:14:00,
2013-05-14 09:19:00,69.4,53.5,30.11,NE,51,5.0,8.0,57,0.00,,---,0.00,VWS V14.01,2013-05-14 13:19:00,
2013-05-14 09:20:00,69.4,53.0,30.11,NE,50,3.0,8.0,56,0.00,,---,0.00,VWS V14.01,2013-05-14 13:20:00,
2013-05-14 09:22:00,69.8,53.4,30.11,NE,45,4.0,8.0,56,0.00,,---,0.00,VWS V14.01,2013-05-14 13:22:00,
2013-05-14 09:24:00,69.8,53.4,30.11,North,0,6.0,8.0,56,0.00,,---,0.00,VWS V14.01,2013-05-14 13:24:00,
2013-05-14 09:28:00,70.1,52.7,30.11,NNE,25,7.0,8.0,54,0.00,,---,0.00,VWS V14.01,2013-05-14 13:28:00,
2013-05-14 09:30:00,70.1,52.7,30.11,NNE,25,7.0,8.0,54,0.00,,---,0.00,VWS V14.01,2013-05-14 13:30:00,
2013-05-14 09:35:00,70.6,53.2,30.12,NNW,340,8.0,8.0,54,0.00,,---,0.00,VWS V14.01,2013-05-14 13:35:00,
2013-05-14 09:42:00,70.9,51.9,30.12,North,1,6.0,8.0,51,0.00,,---,0.00,VWS V14.01,2013-05-14 13:42:00,
2013-05-14 09:46:00,71.1,52.6,30.12,NNW,330,5.0,9.0,52,0.00,,---,0.00,VWS V14.01,2013-05-14 13:46:00,
2013-05-14 09:49:00,71.3,51.7,30.12,North,358,7.0,9.0,50,0.00,,---,0.00,VWS V14.01,2013-05-14 13:49:00,
2013-05-14 09:53:00,71.8,52.2,30.11,East,84,7.0,9.0,50,0.00,,---,0.00,VWS V14.01,2013-05-14 13:53:00,
2013-05-14 09:59:00,72.3,53.2,30.11,NE,51,3.0,9.0,51,0.00,,---,0.00,VWS V14.01,2013-05-14 13:59:00,
2013-05-14 10:01:00,72.5,52.8,30.11,NE,37,6.0,9.0,50,0.00,,---,0.00,VWS V14.01,2013-05-14 14:01:00,
2013-05-14 10:04:00,72.7,52.5,30.11,North,0,4.0,9.0,49,0.00,,---,0.00,VWS V14.01,2013-05-14 14:04:00,
2013-05-14 10:06:00,73.2,52.4,30.11,NNE,32,5.0,5.0,48,0.00,,---,0.00,VWS V14.01,2013-05-14 14:06:00,
2013-05-14 10:10:00,73.2,51.8,30.11,ESE,105,5.0,7.0,47,0.00,,---,0.00,VWS V14.01,2013-05-14 14:10:00,
2013-05-14 10:12:00,73.5,52.1,30.11,North,0,3.0,10.0,47,0.00,,---,0.00,VWS V14.01,2013-05-14 14:12:00,
2013-05-14 10:14:00,73.7,51.1,30.11,NE,43,1.0,10.0,45,0.00,,---,0.00,VWS V14.01,2013-05-14 14:14:00,
2013-05-14 10:16:00,73.9,50.6,30.11,East,90,4.0,10.0,44,0.00,,---,0.00,VWS V14.01,2013-05-14 14:16:00,
2013-05-14 10:18:00,74.0,48.8,30.11,NE,39,3.0,12.0,41,0.00,,---,0.00,VWS V14.01,2013-05-14 14:18:00,
2013-05-14 10:21:00,74.0,50.1,30.11,ENE,75,0.0,12.0,43,0.00,,---,0.00,VWS V14.01,2013-05-14 14:21:00,
2013-05-14 10:24:00,74.4,51.1,30.11,NNW,339,6.0,12.0,44,0.00,,---,0.00,VWS V14.01,2013-05-14 14:24:00,
2013-05-14 10:25:00,74.6,50.7,30.11,NE,38,7.0,12.0,43,0.00,,---,0.00,VWS V14.01,2013-05-14 14:25:00,
2013-05-14 10:27:00,74.6,48.0,30.11,North,5,12.0,12.0,39,0.00,,---,0.00,VWS V14.01,2013-05-14 14:27:00,
2013-05-14 10:33:00,74.6,49.4,30.11,ENE,58,4.0,15.0,41,0.00,,---,0.00,VWS V14.01,2013-05-14 14:33:00,
2013-05-14 10:35:00,74.6,49.4,30.12,North,0,7.0,15.0,41,0.00,,---,0.00,VWS V14.01,2013-05-14 14:35:00,
2013-05-14 10:39:00,74.7,48.1,30.12,North,5,9.0,15.0,39,0.00,,---,0.00,VWS V14.01,2013-05-14 14:39:00,
2013-05-14 10:42:00,74.9,47.6,30.12,NNE,13,5.0,15.0,38,0.00,,---,0.00,VWS V14.01,2013-05-14 14:42:00,
2013-05-14 10:43:00,74.9,47.6,30.12,North,1,6.0,15.0,38,0.00,,---,0.00,VWS V14.01,2013-05-14 14:43:00,
2013-05-14 10:46:00,74.9,47.6,30.12,North,1,6.0,15.0,38,0.00,,---,0.00,VWS V14.01,2013-05-14 14:46:00,
2013-05-14 10:48:00,75.1,48.5,30.12,NNE,26,6.0,15.0,39,0.00,,---,0.00,VWS V14.01,2013-05-14 14:48:00,
2013-05-14 10:53:00,75.6,46.8,30.12,East,101,0.0,15.0,36,0.00,,---,0.00,VWS V14.01,2013-05-14 14:53:00,
2013-05-14 10:55:00,76.0,47.9,30.12,ESE,107,6.0,15.0,37,0.00,,---,0.00,VWS V14.01,2013-05-14 14:55:00,
2013-05-14 11:00:00,76.5,47.6,30.12,NNW,334,3.0,15.0,36,0.00,,---,0.00,VWS V14.01,2013-05-14 15:00:00,
2013-05-14 11:01:00,76.8,47.8,30.12,North,0,9.0,15.0,36,0.00,,---,0.00,VWS V14.01,2013-05-14 15:01:00,
2013-05-14 11:04:00,77.0,47.3,30.12,North,358,4.0,15.0,35,0.00,,---,0.00,VWS V14.01,2013-05-14 15:04:00,
2013-05-14 11:06:00,77.0,47.3,30.12,ENE,63,2.0,4.0,35,0.00,,---,0.00,VWS V14.01,2013-05-14 15:06:00,
2013-05-14 11:08:00,77.2,45.9,30.12,ENE,71,4.0,6.0,33,0.00,,---,0.00,VWS V14.01,2013-05-14 15:08:00,
2013-05-14 11:09:00,77.4,46.1,30.12,ENE,77,6.0,6.0,33,0.00,,---,0.00,VWS V14.01,2013-05-14 15:09:00,
2013-05-14 11:10:00,77.4,46.1,30.12,ENE,77,6.0,6.0,33,0.00,,---,0.00,VWS V14.01,2013-05-14 15:10:00,
2013-05-14 11:15:00,77.2,45.1,30.12,North,3,4.0,8.0,32,0.00,,---,0.00,VWS V14.01,2013-05-14 15:15:00,
2013-05-14 11:21:00,77.2,45.1,30.12,North,3,4.0,8.0,32,0.00,,---,0.00,VWS V14.01,2013-05-14 15:21:00,
2013-05-14 11:23:00,76.8,45.5,30.12,East,96,8.0,11.0,33,0.00,,---,0.00,VWS V14.01,2013-05-14 15:23:00,
2013-05-14 11:25:00,76.7,44.7,30.12,ENE,71,0.0,11.0,32,0.00,,---,0.00,VWS V14.01,2013-05-14 15:25:00,
2013-05-14 11:29:00,76.8,43.9,30.12,North,4,6.0,11.0,31,0.00,,---,0.00,VWS V14.01,2013-05-14 15:29:00,
2013-05-14 11:30:00,76.8,43.9,30.12,North,4,6.0,11.0,31,0.00,,---,0.00,VWS V14.01,2013-05-14 15:30:00,
2013-05-14 11:34:00,76.7,43.0,30.12,North,4,6.0,11.0,30,0.00,,---,0.00,VWS V14.01,2013-05-14 15:34:00,
2013-05-14 11:38:00,77.0,44.1,30.12,North,354,4.0,11.0,31,0.00,,---,0.00,VWS V14.01,2013-05-14 15:38:00,
2013-05-14 11:39:00,77.2,44.2,30.12,NNE,22,6.0,11.0,31,0.00,,---,0.00,VWS V14.01,2013-05-14 15:39:00,
2013-05-14 11:40:00,77.2,44.2,30.12,NNE,22,6.0,11.0,31,0.00,,---,0.00,VWS V14.01,2013-05-14 15:40:00,
2013-05-14 11:43:00,77.2,44.2,30.12,NE,38,6.0,11.0,31,0.00,,---,0.00,VWS V14.01,2013-05-14 15:43:00,
2013-05-14 11:45:00,77.0,44.1,30.12,NNE,26,4.0,11.0,31,0.00,,---,0.00,VWS V14.01,2013-05-14 15:45:00,
2013-05-14 11:48:00,77.2,45.1,30.12,North,6,5.0,11.0,32,0.00,,---,0.00,VWS V14.01,2013-05-14 15:48:00,
2013-05-14 11:53:00,77.7,44.7,30.12,NE,49,0.0,11.0,31,0.00,,---,0.00,VWS V14.01,2013-05-14 15:53:00,
2013-05-14 11:55:00,77.6,43.7,30.12,North,8,5.0,11.0,30,0.00,,---,0.00,VWS V14.01,2013-05-14 15:55:00,
2013-05-14 11:57:00,77.7,46.3,30.12,North,4,4.0,11.0,33,0.00,,---,0.00,VWS V14.01,2013-05-14 15:57:00,
2013-05-14 11:58:00,77.7,45.5,30.12,North,0,7.0,11.0,32,0.00,,---,0.00,VWS V14.01,2013-05-14 15:58:00,
2013-05-14 12:00:00,78.1,42.4,30.12,North,1,4.0,11.0,28,0.00,,---,0.00,VWS V14.01,2013-05-14 16:00:00,
2013-05-14 12:03:00,78.1,42.4,30.12,North,1,4.0,11.0,28,0.00,,---,0.00,VWS V14.01,2013-05-14 16:03:00,
2013-05-14 12:05:00,78.5,44.5,30.12,NE,46,0.0,11.0,30,0.00,,---,0.00,VWS V14.01,2013-05-14 16:05:00,
2013-05-14 12:06:00,78.5,44.5,30.12,North,2,4.0,11.0,30,0.00,,---,0.00,VWS V14.01,2013-05-14 16:06:00,
2013-05-14 12:07:00,78.5,46.2,30.12,NNE,18,7.0,11.0,32,0.00,,---,0.00,VWS V14.01,2013-05-14 16:07:00,
2013-05-14 12:11:00,78.3,45.2,30.12,NE,37,0.0,11.0,31,0.00,,---,0.00,VWS V14.01,2013-05-14 16:11:00,
2013-05-14 12:13:00,78.5,46.2,30.12,North,0,4.0,11.0,32,0.00,,---,0.00,VWS V14.01,2013-05-14 16:13:00,
2013-05-14 12:14:00,78.6,44.6,30.12,NE,34,5.0,11.0,30,0.00,,---,0.00,VWS V14.01,2013-05-14 16:14:00,
2013-05-14 12:15:00,78.6,43.7,30.12,East,88,6.0,11.0,29,0.00,,---,0.00,VWS V14.01,2013-05-14 16:15:00,
2013-05-14 12:17:00,78.8,44.8,30.12,ENE,62,6.0,11.0,30,0.00,,---,0.00,VWS V14.01,2013-05-14 16:17:00,
2013-05-14 12:21:00,78.8,44.8,30.12,NE,46,0.0,11.0,30,0.00,,---,0.00,VWS V14.01,2013-05-14 16:21:00,
2013-05-14 12:22:00,79.2,43.3,30.12,ENE,71,4.0,11.0,28,0.00,,---,0.00,VWS V14.01,2013-05-14 16:22:00,
2013-05-14 12:23:00,79.2,42.4,30.12,ENE,74,4.0,11.0,27,0.00,,---,0.00,VWS V14.01,2013-05-14 16:23:00,
2013-05-14 12:27:00,78.6,43.7,30.12,NE,46,6.0,11.0,29,0.00,,---,0.00,VWS V14.01,2013-05-14 16:27:00,
2013-05-14 12:29:00,78.5,42.7,30.12,NE,39,9.0,11.0,28,0.00,,---,0.00,VWS V14.01,2013-05-14 16:29:00,
2013-05-14 12:31:00,78.5,42.7,30.12,NE,39,9.0,11.0,28,0.00,,---,0.00,VWS V14.01,2013-05-14 16:31:00,
2013-05-14 12:34:00,78.3,42.5,30.12,North,0,7.0,11.0,28,0.00,,---,0.00,VWS V14.01,2013-05-14 16:34:00,
2013-05-14 12:36:00,78.5,44.5,30.12,North,357,9.0,11.0,30,0.00,,---,0.00,VWS V14.01,2013-05-14 16:36:00,
2013-05-14 12:37:00,79.4,42.5,30.12,NNW,339,5.0,11.0,27,0.00,,---,0.00,VWS V14.01,2013-05-14 16:37:00,
2013-05-14 12:41:00,79.9,43.9,30.12,ENE,63,2.0,11.0,28,0.00,,---,0.00,VWS V14.01,2013-05-14 16:41:00,
2013-05-14 12:42:00,79.9,43.9,30.12,ENE,63,2.0,11.0,28,0.00,,---,0.00,VWS V14.01,2013-05-14 16:42:00,
2013-05-14 12:48:00,79.9,43.9,30.12,East,84,1.0,11.0,28,0.00,,---,0.00,VWS V14.01,2013-05-14 16:48:00,
2013-05-14 12:49:00,79.4,42.5,30.12,NE,39,5.0,11.0,27,0.00,,---,0.00,VWS V14.01,2013-05-14 16:49:00,
2013-05-14 12:50:00,79.2,42.4,30.12,NE,44,0.0,11.0,27,0.00,,---,0.00,VWS V14.01,2013-05-14 16:50:00,
2013-05-14 12:52:00,79.2,43.3,30.12,East,86,0.0,11.0,28,0.00,,---,0.00,VWS V14.01,2013-05-14 16:52:00,
2013-05-14 12:53:00,79.4,43.5,30.12,East,86,0.0,11.0,28,0.00,,---,0.00,VWS V14.01,2013-05-14 16:53:00,
2013-05-14 12:56:00,80.1,45.0,30.12,North,358,6.0,11.0,29,0.00,,---,0.00,VWS V14.01,2013-05-14 16:56:00,
2013-05-14 12:59:00,80.3,44.3,30.12,NNW,333,7.0,11.0,28,0.00,,---,0.00,VWS V14.01,2013-05-14 16:59:00,
2013-05-14 13:00:00,80.7,44.6,30.12,NNW,344,7.0,11.0,28,0.00,,---,0.00,VWS V14.01,2013-05-14 17:00:00,
2013-05-14 13:02:00,80.7,44.6,30.12,NNW,344,5.0,11.0,28,0.00,,---,0.00,VWS V14.01,2013-05-14 17:02:00,
2013-05-14 13:03:00,80.9,43.8,30.12,NNW,345,0.0,11.0,27,0.00,,---,0.00,VWS V14.01,2013-05-14 17:03:00,
2013-05-14 13:07:00,81.2,42.1,30.11,NNW,335,5.0,6.0,25,0.00,,---,0.00,VWS V14.01,2013-05-14 17:07:00,
2013-05-14 13:14:00,81.6,45.4,30.11,North,0,10.0,10.0,28,0.00,,---,0.00,VWS V14.01,2013-05-14 17:14:00,
2013-05-14 13:18:00,81.4,43.3,30.11,NNW,328,0.0,10.0,26,0.00,,---,0.00,VWS V14.01,2013-05-14 17:18:00,
2013-05-14 13:20:00,81.4,43.3,30.11,NNW,328,0.0,10.0,26,0.00,,---,0.00,VWS V14.01,2013-05-14 17:20:00,
2013-05-14 13:25:00,82.4,45.1,30.11,North,356,9.0,10.0,27,0.00,,---,0.00,VWS V14.01,2013-05-14 17:25:00,
2013-05-14 13:27:00,82.4,44.1,30.11,NE,37,6.0,10.0,26,0.00,,---,0.00,VWS V14.01,2013-05-14 17:27:00,
2013-05-14 13:28:00,81.8,43.6,30.11,NNW,342,4.0,10.0,26,0.00,,---,0.00,VWS V14.01,2013-05-14 17:28:00,
2013-05-14 13:29:00,81.8,44.6,30.11,NNW,332,12.0,12.0,27,0.00,,---,0.00,VWS V14.01,2013-05-14 17:29:00,
2013-05-14 13:32:00,81.8,44.6,30.11,NNE,25,0.0,12.0,27,0.00,,---,0.00,VWS V14.01,2013-05-14 17:32:00,
2013-05-14 13:35:00,81.8,44.6,30.11,NNE,19,5.0,12.0,27,0.00,,---,0.00,VWS V14.01,2013-05-14 17:35:00,
2013-05-14 13:39:00,81.8,42.6,30.11,NNW,335,2.0,12.0,25,0.00,,---,0.00,VWS V14.01,2013-05-14 17:39:00,
2013-05-14 13:43:00,82.4,43.1,30.11,North,358,6.0,12.0,25,0.00,,---,0.00,VWS V14.01,2013-05-14 17:43:00,
2013-05-14 13:45:00,82.4,42.0,30.11,North,358,3.0,12.0,24,0.00,,---,0.00,VWS V14.01,2013-05-14 17:45:00,
2013-05-14 13:46:00,82.6,43.2,30.11,North,349,8.0,12.0,25,0.00,,---,0.00,VWS V14.01,2013-05-14 17:46:00,
2013-05-14 13:50:00,83.0,44.6,30.11,NNW,346,5.0,12.0,26,0.00,,---,0.00,VWS V14.01,2013-05-14 17:50:00,
2013-05-14 13:51:00,83.6,45.1,30.10,NE,35,4.0,12.0,26,0.00,,---,0.00,VWS V14.01,2013-05-14 17:51:00,
2013-05-14 13:52:00,83.6,44.1,30.10,North,349,6.0,12.0,25,0.00,,---,0.00,VWS V14.01,2013-05-14 17:52:00,
2013-05-14 13:54:00,83.8,43.2,30.10,NNW,345,5.0,12.0,24,0.00,,---,0.00,VWS V14.01,2013-05-14 17:54:00,
2013-05-14 13:56:00,84.0,43.4,30.10,North,353,7.0,12.0,24,0.00,,---,0.00,VWS V14.01,2013-05-14 17:56:00,
2013-05-14 13:58:00,84.1,41.2,30.10,NNW,334,0.0,12.0,22,0.00,,---,0.00,VWS V14.01,2013-05-14 17:58:00,
2013-05-14 13:59:00,84.1,41.2,30.10,NNW,335,0.0,12.0,22,0.00,,---,0.00,VWS V14.01,2013-05-14 17:59:00,
2013-05-14 14:06:00,84.3,43.6,30.10,NE,39,6.0,12.0,24,0.00,,---,0.00,VWS V14.01,2013-05-14 18:06:00,
2013-05-14 14:08:00,83.2,42.7,30.09,ENE,69,3.0,12.0,24,0.00,,---,0.00,VWS V14.01,2013-05-14 18:08:00,
2013-05-14 14:09:00,83.0,43.6,30.09,NE,44,4.0,12.0,25,0.00,,---,0.00,VWS V14.01,2013-05-14 18:09:00,
2013-05-14 14:11:00,82.4,43.1,30.09,NNE,13,8.0,12.0,25,0.00,,---,0.00,VWS V14.01,2013-05-14 18:11:00,
2013-05-14 14:16:00,82.2,43.9,30.09,North,4,2.0,12.0,26,0.00,,---,0.00,VWS V14.01,2013-05-14 18:16:00,
2013-05-14 14:18:00,81.8,44.6,30.09,NE,56,1.0,12.0,27,0.00,,---,0.00,VWS V14.01,2013-05-14 18:18:00,
2013-05-14 14:21:00,81.6,44.4,30.09,NE,51,0.0,12.0,27,0.00,,---,0.00,VWS V14.01,2013-05-14 18:21:00,
2013-05-14 14:22:00,81.8,45.5,30.09,NE,51,0.0,12.0,28,0.00,,---,0.00,VWS V14.01,2013-05-14 18:22:00,
2013-05-14 14:25:00,82.2,44.9,30.09,ESE,103,0.0,12.0,27,0.00,,---,0.00,VWS V14.01,2013-05-14 18:25:00,
2013-05-14 14:26:00,82.6,44.3,30.09,North,358,9.0,12.0,26,0.00,,---,0.00,VWS V14.01,2013-05-14 18:26:00,
2013-05-14 14:28:00,83.2,45.8,30.09,NNW,335,3.0,12.0,27,0.00,,---,0.00,VWS V14.01,2013-05-14 18:28:00,
2013-05-14 14:29:00,83.2,45.8,30.09,NNW,336,4.0,12.0,27,0.00,,---,0.00,VWS V14.01,2013-05-14 18:29:00,
2013-05-14 14:31:00,83.6,46.1,30.09,NNW,335,0.0,12.0,27,0.00,,---,0.00,VWS V14.01,2013-05-14 18:31:00,
2013-05-14 14:33:00,83.8,45.3,30.08,NNE,31,2.0,12.0,26,0.00,,---,0.00,VWS V14.01,2013-05-14 18:33:00,
2013-05-14 14:35:00,83.8,45.3,30.08,NNE,31,2.0,12.0,26,0.00,,---,0.00,VWS V14.01,2013-05-14 18:35:00,
2013-05-14 14:38:00,83.0,45.6,30.08,NNW,336,5.0,12.0,27,0.00,,---,0.00,VWS V14.01,2013-05-14 18:38:00,
2013-05-14 14:40:00,83.2,43.8,30.08,NNW,338,1.0,12.0,25,0.00,,---,0.00,VWS V14.01,2013-05-14 18:40:00,
2013-05-14 14:42:00,83.2,43.8,30.08,NNW,338,1.0,12.0,25,0.00,,---,0.00,VWS V14.01,2013-05-14 18:42:00,
2013-05-14 14:43:00,83.2,44.8,30.08,NNE,13,6.0,12.0,26,0.00,,---,0.00,VWS V14.01,2013-05-14 18:43:00,
2013-05-14 14:46:00,83.0,44.6,30.08,North,2,0.0,12.0,26,0.00,,---,0.00,VWS V14.01,2013-05-14 18:46:00,
2013-05-14 14:49:00,83.2,44.8,30.08,North,2,0.0,12.0,26,0.00,,---,0.00,VWS V14.01,2013-05-14 18:49:00,
2013-05-14 14:50:00,83.2,43.8,30.07,East,86,4.0,12.0,25,0.00,,---,0.00,VWS V14.01,2013-05-14 18:50:00,
2013-05-14 14:57:00,83.4,42.9,30.07,ENE,62,0.0,12.0,24,0.00,,---,0.00,VWS V14.01,2013-05-14 18:57:00,
2013-05-14 14:58:00,83.4,43.9,30.07,NE,56,0.0,12.0,25,0.00,,---,0.00,VWS V14.01,2013-05-14 18:58:00,
2013-05-14 15:02:00,83.4,43.9,30.07,NE,45,0.0,12.0,25,0.00,,---,0.00,VWS V14.01,2013-05-14 19:02:00,
2013-05-14 15:03:00,83.4,43.9,30.07,North,11,4.0,12.0,25,0.00,,---,0.00,VWS V14.01,2013-05-14 19:03:00,
2013-05-14 15:04:00,83.4,43.9,30.06,East,82,0.0,12.0,25,0.00,,---,0.00,VWS V14.01,2013-05-14 19:04:00,
2013-05-14 15:10:00,83.2,44.8,30.06,NE,52,5.0,12.0,26,0.00,,---,0.00,VWS V14.01,2013-05-14 19:10:00,
2013-05-14 15:12:00,82.6,44.3,30.06,NNW,338,6.0,12.0,26,0.00,,---,0.00,VWS V14.01,2013-05-14 19:12:00,
2013-05-14 15:13:00,82.8,44.5,30.06,North,358,5.0,12.0,26,0.00,,---,0.00,VWS V14.01,2013-05-14 19:13:00,
2013-05-14 15:14:00,83.0,45.6,30.06,North,351,0.0,12.0,27,0.00,,---,0.00,VWS V14.01,2013-05-14 19:14:00,
2013-05-14 15:19:00,83.4,46.9,30.06,NNW,346,4.0,12.0,28,0.00,,---,0.00,VWS V14.01,2013-05-14 19:19:00,
2013-05-14 15:20:00,84.0,46.5,30.06,NW,314,9.0,12.0,27,0.00,,---,0.00,VWS V14.01,2013-05-14 19:20:00,
2013-05-14 15:22:00,84.5,45.9,30.06,North,358,2.0,12.0,26,0.00,,---,0.00,VWS V14.01,2013-05-14 19:22:00,
2013-05-14 15:23:00,84.5,44.9,30.06,North,358,0.0,12.0,25,0.00,,---,0.00,VWS V14.01,2013-05-14 19:23:00,
2013-05-14 15:25:00,84.7,45.0,30.06,NNW,344,4.0,12.0,25,0.00,,---,0.00,VWS V14.01,2013-05-14 19:25:00,
2013-05-14 15:28:00,84.9,45.2,30.06,NNW,336,5.0,12.0,25,0.00,,---,0.00,VWS V14.01,2013-05-14 19:28:00,
2013-05-14 15:29:00,84.5,44.9,30.06,North,357,11.0,12.0,25,0.00,,---,0.00,VWS V14.01,2013-05-14 19:29:00,
2013-05-14 15:31:00,84.5,44.9,30.06,NNW,338,7.0,12.0,25,0.00,,---,0.00,VWS V14.01,2013-05-14 19:31:00,
2013-05-14 15:33:00,84.5,47.8,30.05,NNW,347,7.0,12.0,28,0.00,,---,0.00,VWS V14.01,2013-05-14 19:33:00,
2013-05-14 15:34:00,84.5,45.9,30.05,North,350,10.0,12.0,26,0.00,,---,0.00,VWS V14.01,2013-05-14 19:34:00,
2013-05-14 15:38:00,84.5,44.9,30.05,North,0,6.0,12.0,25,0.00,,---,0.00,VWS V14.01,2013-05-14 19:38:00,
2013-05-14 15:39:00,84.7,46.1,30.05,North,354,9.0,12.0,26,0.00,,---,0.00,VWS V14.01,2013-05-14 19:39:00,
2013-05-14 15:44:00,84.9,46.2,30.05,WNW,300,4.0,12.0,26,0.00,,---,0.00,VWS V14.01,2013-05-14 19:44:00,
2013-05-14 15:45:00,84.9,46.2,30.05,North,353,5.0,12.0,26,0.00,,---,0.00,VWS V14.01,2013-05-14 19:45:00,
2013-05-14 15:46:00,85.1,45.4,30.05,North,358,0.0,12.0,25,0.00,,---,0.00,VWS V14.01,2013-05-14 19:46:00,
2013-05-14 15:47:00,85.1,45.4,30.05,NNW,335,1.0,12.0,25,0.00,,---,0.00,VWS V14.01,2013-05-14 19:47:00,
2013-05-14 15:52:00,85.3,46.6,30.05,NNW,347,11.0,12.0,26,0.00,,---,0.00,VWS V14.01,2013-05-14 19:52:00,
2013-05-14 15:57:00,84.5,45.9,30.05,North,352,0.0,12.0,26,0.00,,---,0.00,VWS V14.01,2013-05-14 19:57:00,
2013-05-14 15:58:00,84.7,46.1,30.05,NNW,334,6.0,12.0,26,0.00,,---,0.00,VWS V14.01,2013-05-14 19:58:00,
2013-05-14 16:00:00,84.7,46.1,30.05,NNW,335,9.0,12.0,26,0.00,,---,0.00,VWS V14.01,2013-05-14 20:00:00,
2013-05-14 16:05:00,84.9,47.2,30.05,North,353,0.0,12.0,27,0.00,,---,0.00,VWS V14.01,2013-05-14 20:05:00,
2013-05-14 16:10:00,85.3,46.6,30.05,WSW,252,2.0,12.0,26,0.00,,---,0.00,VWS V14.01,2013-05-14 20:10:00,
2013-05-14 16:12:00,85.3,47.6,30.05,SW,231,0.0,12.0,27,0.00,,---,0.00,VWS V14.01,2013-05-14 20:12:00,
2013-05-14 16:16:00,85.7,45.9,30.05,North,354,0.0,12.0,25,0.00,,---,0.00,VWS V14.01,2013-05-14 20:16:00,
2013-05-14 16:19:00,85.7,47.9,30.05,North,358,9.0,12.0,27,0.00,,---,0.00,VWS V14.01,2013-05-14 20:19:00,
2013-05-14 16:20:00,85.7,47.9,30.05,North,358,9.0,12.0,27,0.00,,---,0.00,VWS V14.01,2013-05-14 20:20:00,
2013-05-14 16:21:00,85.5,46.7,30.05,NNW,335,7.0,12.0,26,0.00,,---,0.00,VWS V14.01,2013-05-14 20:21:00,
2013-05-14 16:22:00,85.5,46.7,30.05,NNW,335,7.0,12.0,26,0.00,,---,0.00,VWS V14.01,2013-05-14 20:22:00,
2013-05-14 16:24:00,85.1,45.4,30.05,NNW,339,5.0,12.0,25,0.00,,---,0.00,VWS V14.01,2013-05-14 20:24:00,
2013-05-14 16:27:00,85.1,46.4,30.05,NNW,330,0.0,12.0,26,0.00,,---,0.00,VWS V14.01,2013-05-14 20:27:00,
2013-05-14 16:28:00,84.9,46.2,30.05,NW,319,4.0,12.0,26,0.00,,---,0.00,VWS V14.01,2013-05-14 20:28:00,
2013-05-14 16:33:00,84.9,46.2,30.05,NNW,337,2.0,12.0,26,0.00,,---,0.00,VWS V14.01,2013-05-14 20:33:00,
2013-05-14 16:34:00,84.5,45.9,30.04,NW,305,0.0,12.0,26,0.00,,---,0.00,VWS V14.01,2013-05-14 20:34:00,
2013-05-14 16:37:00,84.5,45.9,30.04,NW,305,0.0,12.0,26,0.00,,---,0.00,VWS V14.01,2013-05-14 20:37:00,
2013-05-14 16:40:00,84.1,49.3,30.04,North,349,0.0,12.0,30,0.00,,---,0.00,VWS V14.01,2013-05-14 20:40:00,
2013-05-14 16:43:00,84.3,49.5,30.04,NNW,340,0.0,12.0,30,0.00,,---,0.00,VWS V14.01,2013-05-14 20:43:00,
2013-05-14 16:44:00,84.3,49.5,30.04,North,349,0.0,12.0,30,0.00,,---,0.00,VWS V14.01,2013-05-14 20:44:00,
2013-05-14 16:47:00,84.3,50.4,30.04,NNW,337,0.0,12.0,31,0.00,,---,0.00,VWS V14.01,2013-05-14 20:47:00,
2013-05-14 16:49:00,84.0,50.2,30.03,NNW,331,9.0,12.0,31,0.00,,---,0.00,VWS V14.01,2013-05-14 20:49:00,
2013-05-14 16:51:00,83.6,51.5,30.03,WSW,248,10.0,12.0,33,0.00,,---,0.00,VWS V14.01,2013-05-14 20:51:00,
2013-05-14 16:54:00,83.0,52.6,30.03,NNW,335,10.0,12.0,35,0.00,,---,0.00,VWS V14.01,2013-05-14 20:54:00,
2013-05-14 16:56:00,82.8,51.6,30.03,NNW,328,1.0,12.0,34,0.00,,---,0.00,VWS V14.01,2013-05-14 20:56:00,
2013-05-14 16:58:00,82.4,50.4,30.03,North,358,6.0,12.0,33,0.00,,---,0.00,VWS V14.01,2013-05-14 20:58:00,
2013-05-14 17:00:00,82.2,50.3,30.03,NNW,338,10.0,12.0,33,0.00,,---,0.00,VWS V14.01,2013-05-14 21:00:00,
2013-05-14 17:03:00,82.2,51.1,30.03,NW,323,5.0,12.0,34,0.00,,---,0.00,VWS V14.01,2013-05-14 21:03:00,
2013-05-14 17:04:00,81.8,50.7,30.03,NW,323,0.0,12.0,34,0.00,,---,0.00,VWS V14.01,2013-05-14 21:04:00,
2013-05-14 17:05:00,81.6,50.5,30.03,NW,313,6.0,6.0,34,0.00,,---,0.00,VWS V14.01,2013-05-14 21:05:00,
2013-05-14 17:09:00,81.6,50.5,30.03,WNW,297,2.0,10.0,34,0.00,,---,0.00,VWS V14.01,2013-05-14 21:09:00,
2013-05-14 17:10:00,81.6,51.3,30.03,NW,307,0.0,10.0,35,0.00,,---,0.00,VWS V14.01,2013-05-14 21:10:00,
2013-05-14 17:13:00,81.6,51.3,30.03,NNW,330,7.0,10.0,35,0.00,,---,0.00,VWS V14.01,2013-05-14 21:13:00,
2013-05-14 17:15:00,81.6,51.3,30.03,North,353,4.0,10.0,35,0.00,,---,0.00,VWS V14.01,2013-05-14 21:15:00,
2013-05-14 17:16:00,81.6,51.3,30.03,North,353,4.0,10.0,35,0.00,,---,0.00,VWS V14.01,2013-05-14 21:16:00,
2013-05-14 17:19:00,81.8,50.7,30.03,NW,326,8.0,10.0,34,0.00,,---,0.00,VWS V14.01,2013-05-14 21:19:00,
2013-05-14 17:21:00,82.0,50.9,30.03,NW,310,2.0,10.0,34,0.00,,---,0.00,VWS V14.01,2013-05-14 21:21:00,
2013-05-14 17:24:00,82.0,51.7,30.03,WNW,290,0.0,10.0,35,0.00,,---,0.00,VWS V14.01,2013-05-14 21:24:00,
2013-05-14 17:26:00,82.0,51.7,30.03,WNW,290,0.0,10.0,35,0.00,,---,0.00,VWS V14.01,2013-05-14 21:26:00,
2013-05-14 17:30:00,82.2,52.6,30.03,SW,236,4.0,10.0,36,0.00,,---,0.00,VWS V14.01,2013-05-14 21:30:00,
2013-05-14 17:35:00,81.4,51.9,30.03,WSW,258,0.0,10.0,36,0.00,,---,0.00,VWS V14.01,2013-05-14 21:35:00,
2013-05-14 17:36:00,81.4,51.9,30.03,NW,319,4.0,10.0,36,0.00,,---,0.00,VWS V14.01,2013-05-14 21:36:00,
2013-05-14 17:37:00,81.2,52.5,30.03,NNW,328,1.0,10.0,37,0.00,,---,0.00,VWS V14.01,2013-05-14 21:37:00,
2013-05-14 17:40:00,81.2,51.7,30.03,NW,311,3.0,10.0,36,0.00,,---,0.00,VWS V14.01,2013-05-14 21:40:00,
2013-05-14 17:42:00,81.2,52.5,30.03,WSW,241,4.0,10.0,37,0.00,,---,0.00,VWS V14.01,2013-05-14 21:42:00,
2013-05-14 17:45:00,81.1,53.1,30.03,NNW,342,5.0,10.0,38,0.00,,---,0.00,VWS V14.01,2013-05-14 21:45:00,
2013-05-14 17:52:00,81.1,53.1,30.03,NW,306,5.0,10.0,38,0.00,,---,0.00,VWS V14.01,2013-05-14 21:52:00,
2013-05-14 17:55:00,81.1,51.7,30.03,NNW,329,3.0,10.0,36,0.00,,---,0.00,VWS V14.01,2013-05-14 21:55:00,
2013-05-14 17:56:00,81.1,51.7,30.03,West,270,1.0,10.0,36,0.00,,---,0.00,VWS V14.01,2013-05-14 21:56:00,
2013-05-14 17:59:00,80.9,51.5,30.03,NW,308,0.0,10.0,36,0.00,,---,0.00,VWS V14.01,2013-05-14 21:59:00,
2013-05-14 18:00:00,80.9,51.5,30.03,NW,308,0.0,10.0,36,0.00,,---,0.00,VWS V14.01,2013-05-14 22:00:00,
2013-05-14 18:05:00,81.1,52.4,30.03,NW,316,3.0,10.0,37,0.00,,---,0.00,VWS V14.01,2013-05-14 22:05:00,
2013-05-14 18:06:00,80.9,53.7,30.03,NW,325,0.0,10.0,39,0.00,,---,0.00,VWS V14.01,2013-05-14 22:06:00,
2013-05-14 18:07:00,80.7,52.8,30.03,West,261,0.0,10.0,38,0.00,,---,0.00,VWS V14.01,2013-05-14 22:07:00,
2013-05-14 18:11:00,80.7,53.5,30.03,NW,326,0.0,10.0,39,0.00,,---,0.00,VWS V14.01,2013-05-14 22:11:00,
2013-05-14 18:12:00,80.9,53.7,30.03,SW,222,7.0,10.0,39,0.00,,---,0.00,VWS V14.01,2013-05-14 22:12:00,
2013-05-14 18:14:00,80.7,54.2,30.03,NNW,337,0.0,10.0,40,0.00,,---,0.00,VWS V14.01,2013-05-14 22:14:00,
2013-05-14 18:18:00,80.9,54.3,30.03,NNW,345,11.0,11.0,40,0.00,,---,0.00,VWS V14.01,2013-05-14 22:18:00,
2013-05-14 18:19:00,80.9,54.3,30.03,NW,326,0.0,11.0,40,0.00,,---,0.00,VWS V14.01,2013-05-14 22:19:00,
2013-05-14 18:24:00,80.9,54.3,30.03,NW,326,0.0,11.0,40,0.00,,---,0.00,VWS V14.01,2013-05-14 22:24:00,
2013-05-14 18:25:00,81.1,53.8,30.03,North,352,0.0,11.0,39,0.00,,---,0.00,VWS V14.01,2013-05-14 22:25:00,
2013-05-14 18:27:00,81.2,54.6,30.03,NNW,347,7.0,11.0,40,0.00,,---,0.00,VWS V14.01,2013-05-14 22:27:00,
2013-05-14 18:32:00,80.9,54.3,30.03,NW,314,1.0,11.0,40,0.00,,---,0.00,VWS V14.01,2013-05-14 22:32:00,
2013-05-14 18:34:00,80.9,54.3,30.03,NNW,338,0.0,11.0,40,0.00,,---,0.00,VWS V14.01,2013-05-14 22:34:00,
2013-05-14 18:38:00,80.7,53.5,30.03,NNW,347,6.0,11.0,39,0.00,,---,0.00,VWS V14.01,2013-05-14 22:38:00,
2013-05-14 18:39:00,80.5,53.3,30.03,West,277,0.0,11.0,39,0.00,,---,0.00,VWS V14.01,2013-05-14 22:39:00,
2013-05-14 18:44:00,80.5,54.0,30.03,NNW,327,0.0,11.0,40,0.00,,---,0.00,VWS V14.01,2013-05-14 22:44:00,
2013-05-14 18:47:00,80.3,53.8,30.03,SW,233,0.0,11.0,40,0.00,,---,0.00,VWS V14.01,2013-05-14 22:47:00,
2013-05-14 18:48:00,80.3,53.8,30.03,WSW,240,0.0,11.0,40,0.00,,---,0.00,VWS V14.01,2013-05-14 22:48:00,
2013-05-14 18:49:00,80.3,53.8,30.03,WSW,240,0.0,11.0,40,0.00,,---,0.00,VWS V14.01,2013-05-14 22:49:00,
2013-05-14 18:52:00,79.9,53.5,30.03,North,352,4.0,11.0,40,0.00,,---,0.00,VWS V14.01,2013-05-14 22:52:00,
2013-05-14 18:53:00,79.9,54.1,30.03,NNW,341,4.0,11.0,41,0.00,,---,0.00,VWS V14.01,2013-05-14 22:53:00,
2013-05-14 18:55:00,79.8,54.0,30.03,NNW,341,0.0,11.0,41,0.00,,---,0.00,VWS V14.01,2013-05-14 22:55:00,
2013-05-14 18:56:00,79.8,54.7,30.03,NNW,341,0.0,11.0,42,0.00,,---,0.00,VWS V14.01,2013-05-14 22:56:00,
2013-05-14 19:00:00,79.6,54.5,30.03,NNW,341,0.0,11.0,42,0.00,,---,0.00,VWS V14.01,2013-05-14 23:00:00,
2013-05-14 19:01:00,79.2,54.8,30.03,WNW,295,0.0,11.0,43,0.00,,---,0.00,VWS V14.01,2013-05-14 23:01:00,
2013-05-14 19:04:00,78.8,55.1,30.03,WNW,295,0.0,11.0,44,0.00,,---,0.00,VWS V14.01,2013-05-14 23:04:00,
2013-05-14 19:05:00,78.8,55.1,30.03,WNW,295,0.0,0.0,44,0.00,,---,0.00,VWS V14.01,2013-05-14 23:05:00,
2013-05-14 19:06:00,78.8,54.4,30.03,WNW,295,0.0,0.0,43,0.00,,---,0.00,VWS V14.01,2013-05-14 23:06:00,
2013-05-14 19:10:00,78.6,55.5,30.03,WNW,295,0.0,0.0,45,0.00,,---,0.00,VWS V14.01,2013-05-14 23:10:00,
2013-05-14 19:13:00,78.5,54.8,30.03,WNW,296,0.0,0.0,44,0.00,,---,0.00,VWS V14.01,2013-05-14 23:13:00,
2013-05-14 19:17:00,78.3,54.6,30.03,NNW,340,0.0,4.0,44,0.00,,---,0.00,VWS V14.01,2013-05-14 23:17:00,
2013-05-14 19:18:00,78.3,54.6,30.03,NNW,340,5.0,5.0,44,0.00,,---,0.00,VWS V14.01,2013-05-14 23:18:00,
2013-05-14 19:22:00,78.1,53.8,30.03,NNW,342,0.0,5.0,43,0.00,,---,0.00,VWS V14.01,2013-05-14 23:22:00,
2013-05-14 19:24:00,77.9,53.6,30.03,NNW,342,0.0,5.0,43,0.00,,---,0.00,VWS V14.01,2013-05-14 23:24:00,
2013-05-14 19:25:00,77.9,53.6,30.03,NNW,342,0.0,5.0,43,0.00,,---,0.00,VWS V14.01,2013-05-14 23:25:00,
2013-05-14 19:26:00,77.9,53.6,30.03,NNW,342,0.0,5.0,43,0.00,,---,0.00,VWS V14.01,2013-05-14 23:26:00,
2013-05-14 19:31:00,77.6,54.6,30.03,NW,311,0.0,5.0,45,0.00,,---,0.00,VWS V14.01,2013-05-14 23:31:00,
2013-05-14 19:33:00,77.6,54.6,30.03,NW,319,3.0,5.0,45,0.00,,---,0.00,VWS V14.01,2013-05-14 23:33:00,
2013-05-14 19:35:00,77.4,54.4,30.03,NW,326,0.0,5.0,45,0.00,,---,0.00,VWS V14.01,2013-05-14 23:35:00,
2013-05-14 19:38:00,77.2,54.2,30.03,North,352,5.0,5.0,45,0.00,,---,0.00,VWS V14.01,2013-05-14 23:38:00,
2013-05-14 19:39:00,77.2,53.6,30.03,North,351,5.0,5.0,44,0.00,,---,0.00,VWS V14.01,2013-05-14 23:39:00,
2013-05-14 19:41:00,77.0,53.4,30.03,North,351,0.0,5.0,44,0.00,,---,0.00,VWS V14.01,2013-05-14 23:41:00,
2013-05-14 19:44:00,76.8,53.3,30.03,North,351,0.0,5.0,44,0.00,,---,0.00,VWS V14.01,2013-05-14 23:44:00,
2013-05-14 19:46:00,76.8,54.5,30.03,North,351,0.0,5.0,46,0.00,,---,0.00,VWS V14.01,2013-05-14 23:46:00,
2013-05-14 19:47:00,76.8,54.5,30.03,North,351,0.0,5.0,46,0.00,,---,0.00,VWS V14.01,2013-05-14 23:47:00,
2013-05-14 19:50:00,76.7,55.5,30.03,North,351,0.0,5.0,48,0.00,,---,0.00,VWS V14.01,2013-05-14 23:50:00,
2013-05-14 19:51:00,76.7,55.0,30.03,North,351,0.0,5.0,47,0.00,,---,0.00,VWS V14.01,2013-05-14 23:51:00,
2013-05-14 19:52:00,76.5,53.6,30.03,North,351,2.0,5.0,45,0.00,,---,0.00,VWS V14.01,2013-05-14 23:52:00,
2013-05-14 19:53:00,76.5,52.4,30.03,North,350,0.0,5.0,43,0.00,,---,0.00,VWS V14.01,2013-05-14 23:53:00,
2013-05-14 19:55:00,76.3,52.2,30.03,North,350,0.0,5.0,43,0.00,,---,0.00,VWS V14.01,2013-05-14 23:55:00,
2013-05-14 19:56:00,76.3,52.8,30.03,North,350,0.0,5.0,44,0.00,,---,0.00,VWS V14.01,2013-05-14 23:56:00,
2013-05-14 19:59:00,76.1,52.0,30.03,NNW,333,0.0,5.0,43,0.00,,---,0.00,VWS V14.01,2013-05-14 23:59:00,
2013-05-14 20:01:00,76.0,51.9,30.03,NNW,333,0.0,5.0,43,0.00,,---,0.00,VWS V14.01,2013-05-15 00:01:00,
2013-05-14 20:04:00,76.0,52.5,30.04,NNW,333,0.0,0.0,44,0.00,,---,0.00,VWS V14.01,2013-05-15 00:04:00,
2013-05-14 20:05:00,75.8,52.4,30.04,NNW,333,0.0,0.0,44,0.00,,---,0.00,VWS V14.01,2013-05-15 00:05:00,
2013-05-14 20:10:00,75.4,52.0,30.04,NNW,333,0.0,0.0,44,0.00,,---,0.00,VWS V14.01,2013-05-15 00:10:00,
2013-05-14 20:11:00,75.4,52.6,30.04,NNW,333,0.0,0.0,45,0.00,,---,0.00,VWS V14.01,2013-05-15 00:11:00,
2013-05-14 20:13:00,75.3,51.9,30.04,NNW,334,0.0,0.0,44,0.00,,---,0.00,VWS V14.01,2013-05-15 00:13:00,
2013-05-14 20:14:00,75.3,52.5,30.04,NNW,334,0.0,0.0,45,0.00,,---,0.00,VWS V14.01,2013-05-15 00:14:00,
2013-05-14 20:17:00,75.3,52.5,30.04,NNW,334,0.0,5.0,45,0.00,,---,0.00,VWS V14.01,2013-05-15 00:17:00,
2013-05-14 20:18:00,75.1,52.3,30.04,NNW,334,0.0,5.0,45,0.00,,---,0.00,VWS V14.01,2013-05-15 00:18:00,
2013-05-14 20:19:00,75.1,52.3,30.04,NNW,334,0.0,5.0,45,0.00,,---,0.00,VWS V14.01,2013-05-15 00:19:00,
2013-05-14 20:20:00,75.1,52.3,30.04,NNW,334,0.0,5.0,45,0.00,,---,0.00,VWS V14.01,2013-05-15 00:20:00,
2013-05-14 20:25:00,74.7,52.6,30.04,NNW,334,0.0,5.0,46,0.00,,---,0.00,VWS V14.01,2013-05-15 00:25:00,
2013-05-14 20:30:00,74.6,53.1,30.04,NNW,334,0.0,5.0,47,0.00,,---,0.00,VWS V14.01,2013-05-15 00:30:00,
2013-05-14 20:31:00,74.4,53.5,30.04,NNW,334,0.0,5.0,48,0.00,,---,0.00,VWS V14.01,2013-05-15 00:31:00,
2013-05-14 20:33:00,74.4,53.5,30.04,NNW,334,0.0,5.0,48,0.00,,---,0.00,VWS V14.01,2013-05-15 00:33:00,
2013-05-14 20:36:00,74.0,53.7,30.05,NNW,334,0.0,5.0,49,0.00,,---,0.00,VWS V14.01,2013-05-15 00:36:00,
2013-05-14 20:38:00,73.9,53.6,30.05,NNW,334,0.0,5.0,49,0.00,,---,0.00,VWS V14.01,2013-05-15 00:38:00,
2013-05-14 20:40:00,73.9,53.6,30.05,NNW,334,3.0,5.0,49,0.00,,---,0.00,VWS V14.01,2013-05-15 00:40:00,
2013-05-14 20:41:00,73.7,53.4,30.05,NNW,334,0.0,5.0,49,0.00,,---,0.00,VWS V14.01,2013-05-15 00:41:00,
2013-05-14 20:45:00,73.5,53.2,30.05,NNW,335,0.0,5.0,49,0.00,,---,0.00,VWS V14.01,2013-05-15 00:45:00,
2013-05-14 20:47:00,73.3,53.6,30.05,NNW,335,0.0,5.0,50,0.00,,---,0.00,VWS V14.01,2013-05-15 00:47:00,
2013-05-14 20:49:00,73.2,52.9,30.05,NNW,335,0.0,5.0,49,0.00,,---,0.00,VWS V14.01,2013-05-15 00:49:00,
2013-05-14 20:50:00,73.2,52.9,30.05,NNW,335,0.0,5.0,49,0.00,,---,0.00,VWS V14.01,2013-05-15 00:50:00,
2013-05-14 20:51:00,73.2,52.9,30.05,NNW,335,0.0,5.0,49,0.00,,---,0.00,VWS V14.01,2013-05-15 00:51:00,
2013-05-14 20:52:00,73.2,53.5,30.05,NNW,335,2.0,6.0,50,0.00,,---,0.00,VWS V14.01,2013-05-15 00:52:00,
2013-05-14 20:57:00,73.0,52.7,30.05,NNW,337,5.0,6.0,49,0.00,,---,0.00,VWS V14.01,2013-05-15 00:57:00,
2013-05-14 20:59:00,73.0,53.3,30.05,NNW,337,0.0,6.0,50,0.00,,---,0.00,VWS V14.01,2013-05-15 00:59:00,
2013-05-14 21:07:00,73.0,53.3,30.05,NNW,337,0.0,6.0,50,0.00,,---,0.00,VWS V14.01,2013-05-15 01:07:00,
2013-05-14 21:09:00,72.7,53.0,30.05,NNW,340,0.0,6.0,50,0.00,,---,0.00,VWS V14.01,2013-05-15 01:09:00,
2013-05-14 21:15:00,72.7,53.0,30.05,NNW,340,0.0,6.0,50,0.00,,---,0.00,VWS V14.01,2013-05-15 01:15:00,
2013-05-14 21:19:00,72.7,53.5,30.05,NNW,340,0.0,6.0,51,0.00,,---,0.00,VWS V14.01,2013-05-15 01:19:00,
2013-05-14 21:24:00,72.5,53.9,30.06,NNW,340,0.0,6.0,52,0.00,,---,0.00,VWS V14.01,2013-05-15 01:24:00,
2013-05-14 21:28:00,72.3,54.2,30.06,NNW,345,1.0,6.0,53,0.00,,---,0.00,VWS V14.01,2013-05-15 01:28:00,
2013-05-14 21:29:00,72.3,54.2,30.06,NNW,345,0.0,6.0,53,0.00,,---,0.00,VWS V14.01,2013-05-15 01:29:00,
2013-05-14 21:30:00,72.3,54.2,30.06,NNW,345,0.0,6.0,53,0.00,,---,0.00,VWS V14.01,2013-05-15 01:30:00,
2013-05-14 21:32:00,72.1,54.6,30.06,North,349,0.0,6.0,54,0.00,,---,0.00,VWS V14.01,2013-05-15 01:32:00,
2013-05-14 21:36:00,72.1,54.6,30.06,North,350,0.0,6.0,54,0.00,,---,0.00,VWS V14.01,2013-05-15 01:36:00,
2013-05-14 21:37:00,72.1,54.6,30.06,North,350,0.0,6.0,54,0.00,,---,0.00,VWS V14.01,2013-05-15 01:37:00,
2013-05-14 21:39:00,72.1,54.6,30.06,NNW,344,1.0,6.0,54,0.00,,---,0.00,VWS V14.01,2013-05-15 01:39:00,
2013-05-14 21:40:00,72.0,54.5,30.06,NNW,343,4.0,6.0,54,0.00,,---,0.00,VWS V14.01,2013-05-15 01:40:00,
2013-05-14 21:42:00,72.0,54.5,30.06,NNW,333,0.0,6.0,54,0.00,,---,0.00,VWS V14.01,2013-05-15 01:42:00,
2013-05-14 21:45:00,72.0,54.5,30.06,NNW,334,2.0,6.0,54,0.00,,---,0.00,VWS V14.01,2013-05-15 01:45:00,
2013-05-14 21:48:00,72.0,54.5,30.06,NNW,334,5.0,6.0,54,0.00,,---,0.00,VWS V14.01,2013-05-15 01:48:00,
2013-05-14 21:50:00,72.0,55.0,30.06,NNW,333,5.0,6.0,55,0.00,,---,0.00,VWS V14.01,2013-05-15 01:50:00,
2013-05-14 21:51:00,72.0,55.0,30.06,NNW,335,0.0,6.0,55,0.00,,---,0.00,VWS V14.01,2013-05-15 01:51:00,
2013-05-14 21:52:00,72.0,55.0,30.06,NNW,335,0.0,6.0,55,0.00,,---,0.00,VWS V14.01,2013-05-15 01:52:00,
2013-05-14 21:54:00,72.0,55.5,30.06,NNW,335,0.0,6.0,56,0.00,,---,0.00,VWS V14.01,2013-05-15 01:54:00,
2013-05-14 21:58:00,72.0,55.5,30.06,NNW,335,0.0,6.0,56,0.00,,---,0.00,VWS V14.01,2013-05-15 01:58:00,
2013-05-14 21:59:00,71.8,55.3,30.06,NNW,335,0.0,6.0,56,0.00,,---,0.00,VWS V14.01,2013-05-15 01:59:00,
2013-05-14 22:03:00,71.6,55.6,30.08,NE,50,0.0,6.0,57,0.00,,---,0.00,VWS V14.01,2013-05-15 02:03:00,
2013-05-14 22:05:00,71.6,55.6,30.08,NE,50,0.0,6.0,57,0.00,,---,0.00,VWS V14.01,2013-05-15 02:05:00,
2013-05-14 22:08:00,71.5,56.0,30.08,ENE,58,0.0,6.0,58,0.00,,---,0.00,VWS V14.01,2013-05-15 02:08:00,
2013-05-14 22:10:00,71.3,55.8,30.08,ENE,58,0.0,6.0,58,0.00,,---,0.00,VWS V14.01,2013-05-15 02:10:00,
2013-05-14 22:11:00,71.3,55.8,30.08,ENE,58,0.0,6.0,58,0.00,,---,0.00,VWS V14.01,2013-05-15 02:11:00,
2013-05-14 22:13:00,71.3,56.2,30.08,ENE,58,0.0,6.0,59,0.00,,---,0.00,VWS V14.01,2013-05-15 02:13:00,
2013-05-14 22:15:00,71.1,56.1,30.08,ENE,58,0.0,6.0,59,0.00,,---,0.00,VWS V14.01,2013-05-15 02:15:00,
2013-05-14 22:19:00,71.1,56.5,30.08,ENE,58,0.0,6.0,60,0.00,,---,0.00,VWS V14.01,2013-05-15 02:19:00,
2013-05-14 22:22:00,70.9,56.3,30.08,ENE,58,0.0,6.0,60,0.00,,---,0.00,VWS V14.01,2013-05-15 02:22:00,
2013-05-14 22:24:00,70.9,56.3,30.08,ENE,58,0.0,6.0,60,0.00,,---,0.00,VWS V14.01,2013-05-15 02:24:00,
2013-05-14 22:26:00,70.9,56.3,30.08,ENE,58,0.0,6.0,60,0.00,,---,0.00,VWS V14.01,2013-05-15 02:26:00,
2013-05-14 22:28:00,70.8,56.2,30.08,ENE,58,0.0,6.0,60,0.00,,---,0.00,VWS V14.01,2013-05-15 02:28:00,
2013-05-14 22:31:00,70.6,56.5,30.08,ENE,58,0.0,6.0,61,0.00,,---,0.00,VWS V14.01,2013-05-15 02:31:00,
2013-05-14 22:36:00,70.1,56.0,30.09,ENE,58,0.0,6.0,61,0.00,,---,0.00,VWS V14.01,2013-05-15 02:36:00,
2013-05-14 22:38:00,70.1,56.0,30.09,ENE,58,0.0,6.0,61,0.00,,---,0.00,VWS V14.01,2013-05-15 02:38:00,
2013-05-14 22:39:00,69.9,55.8,30.09,ENE,61,3.0,6.0,61,0.00,,---,0.00,VWS V14.01,2013-05-15 02:39:00,
2013-05-14 22:41:00,69.9,56.3,30.09,SE,140,0.0,6.0,62,0.00,,---,0.00,VWS V14.01,2013-05-15 02:41:00,
2013-05-14 22:44:00,69.9,56.3,30.09,SE,139,0.0,6.0,62,0.00,,---,0.00,VWS V14.01,2013-05-15 02:44:00,
2013-05-14 22:46:00,69.9,56.3,30.09,SE,139,0.0,6.0,62,0.00,,---,0.00,VWS V14.01,2013-05-15 02:46:00,
2013-05-14 22:50:00,69.9,56.3,30.09,SE,139,0.0,6.0,62,0.00,,---,0.00,VWS V14.01,2013-05-15 02:50:00,
2013-05-14 22:56:00,69.9,56.3,30.09,SE,139,0.0,6.0,62,0.00,,---,0.00,VWS V14.01,2013-05-15 02:56:00,
2013-05-14 22:58:00,69.8,56.2,30.09,SE,139,0.0,6.0,62,0.00,,---,0.00,VWS V14.01,2013-05-15 02:58:00,
2013-05-14 22:59:00,69.8,56.2,30.09,SE,139,0.0,6.0,62,0.00,,---,0.00,VWS V14.01,2013-05-15 02:59:00,
2013-05-14 23:03:00,69.8,56.2,30.09,SE,139,0.0,6.0,62,0.00,,---,0.00,VWS V14.01,2013-05-15 03:03:00,
2013-05-14 23:04:00,69.4,56.3,30.09,SE,139,0.0,6.0,63,0.00,,---,0.00,VWS V14.01,2013-05-15 03:04:00,
2013-05-14 23:05:00,69.4,56.3,30.09,SE,139,0.0,6.0,63,0.00,,---,0.00,VWS V14.01,2013-05-15 03:05:00,
2013-05-14 23:08:00,69.3,56.6,30.09,SE,139,0.0,0.0,64,0.00,,---,0.00,VWS V14.01,2013-05-15 03:08:00,
2013-05-14 23:09:00,69.1,56.4,30.09,SE,139,0.0,0.0,64,0.00,,---,0.00,VWS V14.01,2013-05-15 03:09:00,
2013-05-14 23:14:00,68.9,56.2,30.09,SE,139,0.0,0.0,64,0.00,,---,0.00,VWS V14.01,2013-05-15 03:14:00,
2013-05-14 23:17:00,68.8,56.1,30.09,SE,139,0.0,0.0,64,0.00,,---,0.00,VWS V14.01,2013-05-15 03:17:00,
2013-05-14 23:19:00,68.6,56.4,30.09,SE,139,0.0,0.0,65,0.00,,---,0.00,VWS V14.01,2013-05-15 03:19:00,
2013-05-14 23:21:00,68.6,56.4,30.09,SE,139,0.0,0.0,65,0.00,,---,0.00,VWS V14.01,2013-05-15 03:21:00,
2013-05-14 23:22:00,68.6,56.4,30.09,SE,139,0.0,0.0,65,0.00,,---,0.00,VWS V14.01,2013-05-15 03:22:00,
2013-05-14 23:27:00,68.3,56.1,30.09,SE,139,0.0,0.0,65,0.00,,---,0.00,VWS V14.01,2013-05-15 03:27:00,
2013-05-14 23:32:00,68.1,56.3,30.09,SE,139,0.0,0.0,66,0.00,,---,0.00,VWS V14.01,2013-05-15 03:32:00,
2013-05-14 23:33:00,68.1,56.3,30.09,SE,139,0.0,0.0,66,0.00,,---,0.00,VWS V14.01,2013-05-15 03:33:00,
2013-05-14 23:35:00,68.1,56.3,30.09,SE,139,0.0,0.0,66,0.00,,---,0.00,VWS V14.01,2013-05-15 03:35:00,
2013-05-14 23:37:00,68.1,56.3,30.09,SE,139,0.0,0.0,66,0.00,,---,0.00,VWS V14.01,2013-05-15 03:37:00,
2013-05-14 23:40:00,67.9,56.1,30.09,SE,139,0.0,0.0,66,0.00,,---,0.00,VWS V14.01,2013-05-15 03:40:00,
2013-05-14 23:42:00,67.9,56.1,30.09,SE,139,0.0,0.0,66,0.00,,---,0.00,VWS V14.01,2013-05-15 03:42:00,
2013-05-14 23:43:00,67.8,56.0,30.09,SE,139,0.0,0.0,66,0.00,,---,0.00,VWS V14.01,2013-05-15 03:43:00,
2013-05-14 23:45:00,67.8,56.0,30.09,SE,139,0.0,0.0,66,0.00,,---,0.00,VWS V14.01,2013-05-15 03:45:00,
2013-05-14 23:47:00,67.8,56.5,30.09,SE,139,0.0,0.0,67,0.00,,---,0.00,VWS V14.01,2013-05-15 03:47:00,
2013-05-14 23:48:00,67.6,56.3,30.09,SE,139,0.0,0.0,67,0.00,,---,0.00,VWS V14.01,2013-05-15 03:48:00,
2013-05-14 23:50:00,67.4,56.1,30.09,SE,139,0.0,0.0,67,0.00,,---,0.00,VWS V14.01,2013-05-15 03:50:00,
2013-05-14 23:52:00,67.4,56.1,30.09,SE,139,0.0,0.0,67,0.00,,---,0.00,VWS V14.01,2013-05-15 03:52:00,
2013-05-14 23:53:00,67.1,55.8,30.09,SE,139,0.0,0.0,67,0.00,,---,0.00,VWS V14.01,2013-05-15 03:53:00,